GFSNGP_850_dewp_000.txt.gz
Dewpoint
2 1 0 1 2 1 4 3 4 0 0 -1 -3 -3 -2 1 1 1 1 1 0 0 0 0 1 2 3 3 3 3 1 0 -1 0 -1 -2 -3 -4 -5 -4 -3 -3 -3 -3
1 -2 -4 -2 -2 -3 -1 0 1 1 1 -2 -3 1 1 1 1 2 2 0 -0 -1 -0 2 3 4 2 2 3 2 0 -0 -1 -0 -1 -2 -3 -3 -2 -2 -2 -3 -2 -1
1 -2 -0 2 -0 -0 -1 -2 -2 0 -1 -2 -1 1 2 2 2 2 1 0 -1 1 2 2 0 -0 1 2 2 -1 -2 -3 -2 -3 -5 -5 -5 -4 -4 -4 -4 -3 -2 -1
3 2 5 1 -1 -1 0 -1 -2 -1 -1 -1 1 2 2 1 1 2 2 -0 1 -1 -2 -3 -1 1 1 -1 -3 -5 -5 -5 -6 -7 -7 -7 -6 -6 -6 -6 -5 -5 -5 -3
5 5 3 2 1 1 1 1 -1 -0 -1 -1 2 1 0 1 1 1 1 0 -1 -1 -1 -1 -2 -2 -4 -5 -6 -8 -8 -10 -13 -13 -13 -13 -11 -10 -11 -9 -7 -9 -7 -6
5 6 8 2 0 -1 -1 3 2 1 1 3 1 2 1 0 1 2 1 1 1 -1 -2 -3 -4 -6 -8 -10 -14 -15 -18 -19 -19 -19 -18 -17 -16 -15 -13 -11 -13 -9 -10 -9
4 5 5 1 -0 -1 4 4 2 2 2 3 2 0 0 1 1 2 1 0 -1 -1 -4 -5 -9 -12 -17 -20 -21 -19 -20 -21 -22 -21 -19 -19 -17 -16 -13 -15 -12 -14 -11 -11
5 5 6 0 1 3 1 1 1 2 2 -1 -1 -1 1 1 1 0 0 0 -1 -5 -8 -14 -19 -21 -23 -23 -22 -23 -24 -25 -25 -23 -21 -20 -16 -15 -15 -16 -15 -12 -12 -12
5 5 2 0 0 0 -0 0 1 0 -0 -1 -1 0 1 1 0 1 1 0 -3 -10 -19 -28 -25 -22 -23 -25 -23 -23 -22 -21 -20 -19 -18 -16 -15 -16 -16 -15 -15 -13 -12 -12
2 0 0 0 -0 0 0 -0 -1 -1 -1 -1 -0 0 1 1 1 2 0 -4 -10 -23 -28 -24 -23 -23 -24 -24 -22 -20 -19 -18 -19 -18 -17 -18 -17 -14 -15 -14 -13 -13 -12 -12
3 2 1 1 0 1 1 1 0 -0 -1 -1 -1 -0 1 2 1 -1 -4 -12 -25 -24 -22 -24 -24 -24 -23 -21 -19 -18 -18 -20 -19 -18 -18 -17 -16 -14 -12 -13 -12 -11 -10 -9
3 0 1 1 1 1 1 1 0 -0 -1 -1 -1 1 2 0 -3 -9 -15 -21 -21 -21 -23 -26 -24 -23 -23 -20 -18 -17 -18 -18 -18 -17 -16 -16 -13 -12 -13 -11 -10 -10 -9 -9
1 0 1 1 0 1 1 1 1 0 -1 -1 1 -0 -3 -6 -13 -21 -23 -21 -20 -22 -23 -22 -21 -20 -20 -19 -17 -17 -16 -16 -15 -14 -14 -12 -11 -10 -9 -12 -9 -9 -9 -9
-0 0 1 1 1 1 1 1 1 0 -0 0 -1 -3 -8 -19 -22 -20 -20 -20 -21 -21 -21 -19 -19 -20 -20 -18 -16 -14 -14 -14 -15 -14 -12 -11 -10 -9 -9 -9 -9 -9 -9 -9
-0 -0 1 1 1 1 1 0 0 0 -0 -2 -5 -16 -20 -20 -19 -20 -20 -20 -19 -19 -19 -18 -18 -20 -18 -16 -14 -14 -14 -14 -13 -11 -10 -9 -9 -9 -9 -8 -9 -9 -9 -10
1 1 1 1 1 0 0 -0 -1 -1 -3 -10 -16 -21 -19 -18 -20 -21 -22 -20 -17 -18 -19 -18 -19 -19 -17 -13 -13 -13 -14 -14 -11 -10 -10 -10 -10 -9 -9 -10 -9 -9 -9 -10
-1 -1 0 0 0 -1 -0 -1 -2 -8 -14 -21 -21 -19 -18 -20 -21 -20 -19 -19 -19 -19 -19 -19 -20 -18 -14 -13 -14 -15 -15 -12 -10 -10 -10 -10 -10 -10 -10 -9 -10 -10 -10 -11
-5 -4 -1 -0 -1 -0 -1 -3 -4 -17 -23 -20 -19 -19 -19 -20 -20 -21 -21 -20 -20 -21 -21 -20 -17 -15 -16 -16 -15 -13 -11 -11 -10 -10 -10 -10 -10 -9 -9 -10 -10 -10 -9 -10
-10 -5 -2 -1 -0 -0 -2 -5 -21 -21 -20 -19 -18 -19 -20 -21 -21 -21 -20 -20 -20 -19 -21 -19 -18 -15 -14 -16 -14 -11 -10 -10 -10 -11 -10 -10 -11 -10 -10 -10 -10 -10 -10 -10
-4 -2 -1 -1 -2 -6 -15 -22 -20 -19 -18 -18 -18 -19 -20 -21 -20 -19 -19 -19 -20 -18 -17 -16 -16 -16 -15 -14 -12 -11 -10 -10 -10 -10 -10 -10 -10 -11 -11 -11 -11 -11 -11 -10
-3 -2 -3 -6 -15 -26 -21 -19 -18 -18 -18 -17 -18 -19 -20 -20 -19 -18 -17 -17 -20 -18 -16 -14 -14 -14 -13 -12 -10 -10 -10 -11 -10 -10 -10 -10 -10 -10 -10 -11 -11 -12 -11 -11
-4 -5 -8 -19 -26 -22 -19 -17 -17 -17 -17 -17 -18 -18 -18 -18 -18 -18 -18 -17 -17 -18 -15 -14 -13 -12 -11 -10 -10 -11 -11 -10 -10 -11 -11 -11 -11 -11 -12 -12 -12 -13 -13 -12
-5 -6 -10 -19 -21 -19 -15 -16 -16 -15 -16 -17 -17 -18 -18 -17 -17 -16 -17 -18 -17 -15 -12 -13 -14 -11 -11 -11 -11 -11 -11 -11 -11 -11 -11 -12 -12 -12 -12 -13 -13 -12 -12 -13
-5 -6 -9 -15 -18 -16 -15 -15 -14 -14 -16 -17 -17 -17 -17 -16 -16 -17 -16 -16 -16 -15 -13 -13 -12 -11 -11 -11 -11 -12 -13 -12 -12 -12 -12 -12 -12 -12 -12 -12 -13 -13 -13 -13
-6 -5 -6 -11 -15 -14 -13 -13 -14 -16 -16 -16 -17 -17 -16 -16 -15 -17 -18 -17 -16 -14 -14 -14 -12 -12 -12 -13 -13 -13 -12 -12 -12 -12 -12 -12 -12 -12 -12 -12 -12 -13 -12 -12
-6 -5 -5 -7 -10 -11 -12 -13 -15 -15 -16 -17 -16 -17 -17 -18 -19 -17 -17 -17 -16 -15 -14 -14 -14 -13 -13 -13 -13 -12 -12 -12 -12 -13 -12 -12 -13 -13 -13 -13 -13 -13 -13 -13
-8 -6 -6 -9 -11 -12 -14 -14 -15 -16 -16 -16 -17 -18 -19 -18 -18 -18 -18 -17 -15 -15 -14 -14 -14 -14 -13 -13 -13 -13 -13 -13 -13 -13 -13 -13 -13 -13 -13 -13 -13 -14 -13 -14

GFSNGP_850_dewp_003.txt.gz
Dewpoint
1 0 -1 1 1 2 4 3 3 -1 0 -1 -2 -2 -1 1 1 1 2 0 -0 -0 0 1 1 0 -2 -4 -3 -1 -0 0 -0 -1 -3 -5 -7 -9 -9 -9 -7 -6 -6 -5
-1 -2 -3 -2 -3 -2 -1 0 2 2 1 -2 -2 -2 1 2 1 1 0 -0 -1 -0 -0 -0 -1 -4 -3 -2 -1 -1 -2 -4 -6 -7 -9 -15 -20 -22 -18 -14 -11 -10 -5 -4
-0 -0 0 2 0 -1 -1 -2 -2 -0 -2 -3 -1 0 2 2 2 1 -1 -1 -0 -1 -2 -3 -3 -3 -2 -2 -3 -6 -8 -11 -14 -21 -32 -33 -31 -28 -24 -21 -19 -16 -8 -9
2 2 5 0 -1 -1 -0 -0 -1 -1 -2 -1 0 2 1 2 2 0 -0 0 -1 -2 -1 -1 -2 -3 -4 -5 -9 -14 -24 -30 -32 -31 -30 -29 -27 -25 -23 -20 -17 -12 -13 -12
4 4 3 2 1 1 1 1 -0 -0 1 2 1 1 1 1 1 1 1 0 -1 -1 -0 -1 -2 -3 -6 -11 -22 -34 -33 -29 -28 -28 -28 -27 -25 -24 -21 -19 -18 -20 -16 -13
1 4 6 3 0 -1 -1 2 2 1 2 3 1 3 1 2 2 2 1 1 0 -0 2 1 -2 -8 -16 -29 -31 -28 -27 -27 -26 -25 -24 -23 -22 -21 -20 -19 -20 -18 -19 -17
4 4 3 1 -0 -0 3 2 1 2 2 3 2 2 1 2 2 2 1 1 0 2 1 -3 -10 -22 -29 -26 -25 -26 -25 -24 -24 -23 -22 -22 -21 -20 -18 -17 -17 -16 -17 -13
4 4 5 0 1 2 1 1 1 0 1 1 1 1 1 1 1 1 1 1 2 1 -4 -12 -23 -25 -24 -25 -25 -24 -23 -23 -22 -22 -22 -22 -20 -19 -18 -16 -15 -16 -13 -12
4 3 0 0 0 -0 0 -0 -0 -1 -1 -1 0 1 1 0 1 2 2 2 1 -2 -11 -23 -25 -24 -27 -26 -23 -23 -22 -22 -22 -22 -21 -21 -19 -18 -16 -16 -15 -12 -11 -11
2 1 1 1 0 1 1 1 1 1 0 -0 -1 0 0 1 1 1 1 1 -2 -8 -26 -26 -25 -27 -26 -24 -22 -22 -21 -21 -21 -20 -20 -19 -18 -17 -16 -15 -12 -10 -9 -8
3 1 0 0 0 1 1 1 1 1 1 0 -0 -1 -0 0 1 1 0 -1 -8 -24 -25 -25 -26 -26 -24 -22 -21 -21 -20 -20 -20 -19 -19 -19 -18 -17 -15 -14 -10 -8 -8 -8
3 1 1 1 1 0 1 1 1 1 1 0 -0 -0 -0 1 1 -1 -7 -14 -23 -23 -25 -26 -25 -24 -23 -22 -21 -20 -20 -19 -18 -16 -16 -16 -15 -15 -15 -13 -9 -8 -8 -7
2 0 -0 0 1 1 1 1 1 1 0 -0 -0 0 0 -0 -2 -6 -16 -23 -21 -24 -25 -24 -23 -23 -22 -21 -20 -19 -17 -16 -16 -15 -15 -14 -12 -10 -9 -12 -11 -9 -8 -8
-0 0 0 0 1 1 1 1 1 1 1 1 1 0 -1 -4 -13 -23 -22 -21 -23 -24 -24 -22 -21 -22 -21 -21 -19 -17 -16 -15 -13 -14 -14 -12 -10 -9 -9 -9 -9 -10 -11 -9
1 1 1 1 1 0 0 1 1 0 -0 0 -0 -2 -7 -17 -23 -20 -20 -22 -22 -22 -22 -20 -20 -22 -20 -19 -17 -16 -13 -12 -13 -13 -11 -10 -9 -9 -9 -9 -9 -10 -11 -10
1 1 0 -2 -3 -1 0 0 0 -0 -1 -1 -3 -12 -21 -19 -18 -19 -21 -22 -21 -22 -21 -20 -20 -21 -20 -18 -16 -14 -14 -15 -13 -11 -10 -10 -10 -10 -10 -10 -10 -10 -10 -10
-0 -2 -7 -8 -4 -2 -1 -1 -1 -1 -2 -7 -16 -19 -19 -19 -20 -21 -22 -22 -21 -20 -20 -20 -20 -21 -20 -18 -16 -16 -14 -15 -12 -11 -10 -10 -10 -10 -10 -10 -9 -10 -11 -12
-8 -8 -7 -4 -2 -1 -1 -1 -1 -5 -9 -19 -20 -20 -20 -20 -20 -21 -21 -20 -20 -21 -21 -21 -21 -20 -19 -18 -16 -15 -14 -12 -11 -10 -10 -10 -10 -10 -10 -11 -11 -10 -11 -12
-11 -9 -6 -2 -2 -1 -1 -2 -3 -13 -21 -21 -21 -20 -19 -19 -20 -20 -20 -20 -20 -20 -20 -20 -20 -19 -18 -17 -15 -12 -12 -11 -11 -11 -11 -10 -11 -11 -10 -10 -11 -11 -10 -11
-11 -10 -7 -4 -2 -1 -2 -7 -21 -21 -21 -20 -19 -18 -18 -19 -19 -19 -19 -19 -19 -19 -19 -19 -19 -18 -16 -15 -13 -11 -11 -10 -10 -10 -11 -11 -11 -11 -11 -11 -11 -11 -12 -12
-12 -10 -7 -4 -3 -6 -15 -24 -21 -20 -19 -18 -18 -18 -18 -18 -19 -18 -18 -18 -19 -18 -18 -19 -18 -16 -15 -12 -11 -10 -11 -11 -11 -10 -11 -11 -11 -11 -11 -11 -12 -13 -13 -12
-11 -9 -7 -5 -6 -14 -24 -22 -19 -18 -17 -16 -16 -17 -17 -17 -17 -17 -18 -18 -18 -19 -19 -16 -15 -15 -11 -11 -11 -11 -11 -11 -11 -11 -11 -11 -11 -12 -12 -12 -13 -12 -13 -13
-11 -9 -7 -7 -8 -15 -21 -20 -18 -16 -15 -14 -15 -17 -16 -16 -17 -17 -17 -18 -19 -18 -13 -16 -17 -12 -11 -11 -11 -11 -12 -13 -13 -13 -12 -12 -12 -12 -12 -12 -12 -12 -13 -12
-10 -8 -6 -7 -9 -12 -16 -18 -15 -14 -13 -14 -16 -15 -16 -17 -17 -17 -17 -19 -19 -18 -17 -18 -17 -12 -11 -12 -13 -14 -14 -13 -13 -13 -13 -12 -12 -12 -13 -13 -13 -13 -13 -13
-9 -7 -5 -5 -8 -9 -13 -13 -12 -12 -13 -15 -15 -17 -17 -17 -17 -19 -20 -19 -19 -19 -18 -16 -15 -15 -15 -14 -14 -14 -13 -13 -13 -12 -12 -12 -13 -13 -13 -13 -13 -13 -13 -12
-9 -7 -6 -6 -6 -8 -10 -11 -12 -14 -14 -16 -17 -17 -18 -19 -20 -19 -19 -19 -19 -18 -16 -16 -15 -15 -14 -14 -14 -13 -13 -13 -13 -13 -13 -13 -13 -13 -13 -13 -13 -13 -13 -13
-10 -9 -7 -7 -7 -9 -11 -13 -14 -15 -17 -17 -17 -18 -19 -19 -19 -19 -19 -19 -18 -16 -16 -15 -15 -14 -14 -13 -13 -13 -13 -13 -13 -14 -13 -13 -13 -13 -13 -13 -13 -13 -13 -13

GFSNGP_850_dewp_006.txt.gz
Dewpoint
1 0 0 2 3 4 4 2 2 0 1 -1 -2 -3 -2 -2 -1 1 2 1 1 1 1 1 0 -1 -4 -3 -3 -3 -4 -6 -9 -13 -22 -35 -37 -35 -35 -35 -35 -34 -33 -30
-2 -2 -2 -2 -2 -2 0 2 2 2 1 -2 -3 -2 0 1 1 2 2 1 0 1 1 -0 -2 -3 -1 -1 -2 -4 -8 -13 -24 -37 -35 -33 -34 -35 -34 -33 -32 -32 -32 -31
-2 0 0 1 0 -1 -3 -3 -3 -2 -4 -2 -2 1 2 2 1 2 1 0 0 0 -0 -3 -1 -1 -1 -2 -4 -10 -19 -34 -35 -32 -33 -32 -31 -29 -28 -27 -26 -26 -26 -26
1 1 4 0 -1 -1 -1 -1 -2 -2 -1 -0 2 1 1 2 2 1 0 0 1 -0 -2 -1 0 0 -2 -5 -12 -25 -34 -32 -32 -31 -30 -28 -27 -26 -25 -25 -24 -24 -23 -23
4 4 2 1 0 1 1 2 1 1 1 2 1 1 0 0 1 1 0 1 -0 -1 -0 1 0 -0 -4 -12 -25 -32 -31 -31 -30 -28 -27 -26 -25 -25 -24 -23 -22 -21 -20 -20
2 4 5 1 -0 -1 -2 1 1 2 2 2 2 3 1 1 1 1 1 1 0 0 1 1 -1 -4 -12 -25 -29 -30 -31 -29 -27 -25 -24 -24 -23 -23 -22 -21 -20 -19 -19 -18
4 4 3 0 -0 -1 2 -0 2 1 1 1 2 2 2 1 2 2 2 1 0 1 1 1 -2 -10 -23 -28 -29 -29 -27 -26 -24 -23 -22 -22 -22 -22 -21 -20 -18 -17 -16 -16
3 4 4 0 1 3 1 1 -0 -0 -0 -0 -0 0 1 1 2 1 1 1 1 1 1 1 -9 -23 -27 -28 -27 -25 -25 -24 -24 -23 -22 -21 -21 -21 -20 -19 -17 -15 -13 -11
2 2 0 0 0 0 0 0 0 0 0 -0 -0 -0 0 1 1 1 1 1 1 0 -0 -5 -21 -24 -27 -26 -24 -24 -24 -24 -23 -23 -22 -21 -19 -19 -19 -17 -14 -12 -10 -8
2 1 1 0 0 0 1 1 1 1 1 0 0 -0 0 1 1 1 1 0 -1 -1 -8 -24 -24 -26 -25 -24 -24 -23 -23 -23 -23 -21 -20 -19 -19 -18 -16 -14 -11 -9 -8 -8
3 1 0 1 1 1 1 1 1 1 1 1 1 -0 -0 0 1 1 0 -1 -3 -12 -24 -23 -25 -26 -24 -23 -23 -23 -22 -23 -22 -20 -18 -18 -19 -17 -14 -12 -9 -8 -9 -8
3 1 1 1 -0 -0 1 1 1 1 1 1 1 -0 -0 -0 1 -0 -2 -6 -12 -23 -22 -24 -25 -25 -24 -23 -22 -22 -22 -22 -20 -17 -17 -16 -16 -17 -16 -13 -10 -9 -9 -9
1 1 0 -0 0 0 0 0 0 1 1 0 -0 0 0 -1 -1 -2 -6 -19 -22 -22 -24 -24 -24 -24 -23 -22 -22 -22 -21 -19 -18 -16 -15 -15 -14 -12 -10 -13 -11 -10 -10 -9
0 -0 0 0 -0 0 1 1 1 1 1 1 1 -1 -1 -2 -4 -12 -22 -20 -21 -23 -24 -23 -23 -22 -22 -22 -22 -21 -19 -18 -15 -15 -15 -14 -11 -10 -10 -10 -10 -11 -13 -10
0 0 1 0 0 -0 -1 -1 1 1 0 -0 -1 -1 -2 -7 -18 -22 -20 -21 -22 -23 -22 -21 -21 -22 -21 -21 -20 -19 -17 -15 -15 -13 -13 -11 -11 -11 -10 -10 -10 -11 -11 -11
0 0 0 -1 -5 -6 -5 -4 -1 -1 -1 -1 -2 -4 -12 -22 -21 -21 -21 -21 -21 -21 -21 -21 -21 -20 -20 -20 -20 -18 -16 -15 -13 -13 -12 -12 -12 -11 -10 -10 -10 -11 -10 -10
0 -0 -4 -9 -9 -7 -3 -2 -1 -2 -1 -1 -4 -14 -21 -21 -21 -20 -20 -20 -21 -20 -20 -19 -20 -20 -20 -20 -19 -16 -16 -15 -13 -13 -12 -12 -11 -10 -10 -10 -10 -11 -12 -12
-7 -11 -10 -9 -7 -4 -3 -2 -1 -1 -2 -5 -19 -22 -21 -20 -19 -19 -19 -20 -20 -20 -18 -18 -19 -19 -20 -19 -18 -16 -14 -13 -12 -11 -12 -11 -10 -10 -11 -11 -11 -11 -11 -12
-11 -9 -9 -8 -5 -3 -3 -2 -2 -2 -8 -21 -21 -20 -20 -19 -18 -19 -19 -19 -17 -17 -17 -19 -19 -19 -20 -19 -16 -14 -13 -12 -11 -11 -11 -11 -11 -11 -11 -11 -11 -11 -11 -11
-7 -7 -9 -9 -6 -3 -2 -3 -4 -13 -21 -20 -20 -19 -19 -19 -18 -19 -18 -16 -15 -18 -18 -19 -19 -20 -19 -17 -15 -11 -11 -11 -11 -11 -11 -11 -11 -12 -11 -12 -11 -12 -12 -12
-6 -7 -10 -9 -6 -5 -5 -10 -20 -22 -20 -19 -18 -18 -17 -17 -17 -17 -15 -15 -17 -18 -18 -20 -21 -20 -18 -15 -11 -11 -11 -11 -11 -11 -11 -12 -12 -12 -12 -12 -12 -12 -12 -12
-6 -6 -9 -10 -7 -6 -8 -15 -22 -21 -20 -19 -18 -16 -15 -15 -16 -15 -16 -17 -18 -18 -20 -20 -19 -18 -15 -11 -11 -12 -12 -12 -13 -13 -13 -13 -12 -12 -13 -13 -12 -13 -13 -13
-5 -5 -7 -9 -7 -7 -9 -15 -19 -21 -20 -17 -15 -14 -14 -15 -15 -16 -17 -17 -18 -20 -19 -19 -19 -18 -12 -11 -12 -13 -14 -14 -14 -14 -13 -13 -13 -13 -13 -13 -13 -13 -13 -13
-5 -4 -7 -8 -6 -7 -8 -10 -14 -16 -16 -15 -13 -13 -15 -15 -16 -17 -17 -19 -20 -20 -19 -20 -19 -17 -12 -13 -15 -15 -14 -14 -13 -13 -13 -13 -13 -13 -13 -13 -13 -13 -13 -13
-3 -4 -9 -9 -6 -5 -7 -9 -10 -13 -13 -12 -12 -14 -15 -17 -17 -18 -19 -20 -20 -19 -20 -20 -17 -16 -16 -16 -15 -14 -14 -13 -13 -13 -13 -13 -14 -14 -14 -13 -13 -13 -13 -13
-5 -9 -9 -7 -6 -6 -7 -8 -9 -10 -11 -13 -14 -16 -17 -17 -19 -20 -20 -19 -19 -20 -19 -18 -16 -16 -15 -15 -15 -14 -13 -13 -13 -13 -14 -14 -14 -14 -14 -13 -14 -14 -13 -13
-7 -10 -9 -8 -7 -7 -7 -9 -10 -12 -14 -16 -17 -17 -18 -20 -20 -19 -19 -19 -20 -19 -17 -16 -16 -15 -15 -14 -14 -14 -13 -13 -13 -14 -14 -14 -14 -14 -14 -14 -14 -13 -13 -14

GFSNGP_850_dewp_009.txt.gz
Dewpoint
1 1 3 3 4 3 2 1 2 0 2 -1 -2 -2 -3 -2 -2 -0 2 2 2 2 2 2 1 -1 -3 -1 -1 -1 -2 -6 -14 -27 -35 -33 -33 -32 -32 -31 -30 -30 -30 -30
-2 -1 -2 -2 -1 3 3 3 2 2 1 -2 -2 -1 0 1 1 1 2 2 1 1 2 2 -1 -2 -1 -0 -0 -2 -7 -16 -29 -33 -32 -32 -31 -30 -30 -29 -29 -29 -29 -28
-1 0 -0 -0 -0 -2 -3 -3 -2 -2 -4 -2 1 2 2 2 1 1 2 2 1 2 2 -1 -1 0 1 0 -1 -7 -18 -29 -31 -31 -31 -30 -29 -28 -27 -27 -27 -27 -27 -27
0 1 3 -2 -1 -1 -2 -1 -3 1 1 1 2 1 0 0 1 1 1 1 1 2 -0 -1 1 1 0 -1 -6 -18 -28 -30 -30 -29 -28 -27 -27 -26 -26 -26 -26 -26 -25 -24
4 3 1 2 0 -0 1 3 1 2 1 2 1 1 0 0 1 1 1 1 1 0 -1 0 1 1 -1 -4 -18 -26 -29 -30 -29 -28 -27 -26 -26 -25 -25 -25 -25 -24 -23 -22
3 5 5 1 -0 -1 -3 5 1 2 2 2 2 3 2 1 1 1 1 1 0 -0 0 1 0 -1 -7 -13 -23 -29 -30 -28 -27 -25 -25 -25 -24 -24 -23 -23 -23 -22 -21 -19
4 4 3 -0 -1 -1 3 -0 2 1 1 0 1 1 -0 -0 1 1 1 1 1 0 1 -0 -1 -4 -11 -16 -28 -29 -27 -26 -26 -24 -24 -24 -23 -22 -22 -22 -21 -20 -19 -19
3 4 4 -0 1 2 0 1 -0 -0 -0 -0 -1 -1 -1 0 2 2 2 1 0 0 0 -1 -3 -6 -12 -27 -27 -26 -26 -25 -24 -24 -23 -23 -22 -22 -22 -22 -20 -19 -17 -16
2 2 -0 0 0 0 0 0 0 0 0 0 -0 -0 0 0 1 2 1 1 0 0 -1 -2 -7 -14 -25 -26 -25 -25 -24 -24 -24 -23 -23 -22 -21 -21 -21 -19 -16 -15 -11 -9
2 1 1 0 0 0 1 1 1 1 1 0 1 0 -0 -0 1 1 1 0 0 -1 -1 -7 -19 -24 -25 -24 -23 -24 -23 -23 -23 -22 -22 -21 -20 -20 -18 -17 -15 -11 -9 -9
2 1 1 0 1 1 1 1 1 1 1 1 1 1 0 -0 1 1 1 0 -1 -4 -12 -22 -23 -25 -24 -23 -23 -22 -22 -22 -22 -22 -21 -20 -21 -20 -18 -16 -10 -9 -9 -9
3 1 0 1 0 0 0 1 1 1 1 1 1 1 0 -0 -0 -0 -1 -2 -6 -14 -22 -22 -24 -24 -23 -22 -22 -22 -22 -22 -21 -20 -19 -19 -20 -21 -20 -14 -10 -9 -9 -9
1 1 0 -0 0 -1 -1 -1 -1 -1 -0 0 0 0 0 -0 -1 -2 -2 -5 -18 -21 -21 -23 -23 -22 -21 -21 -21 -21 -21 -21 -20 -19 -19 -19 -18 -15 -12 -12 -10 -14 -10 -10
0 0 0 0 -0 -0 -0 -1 -2 -2 -1 0 0 0 0 -1 -2 -3 -8 -20 -20 -21 -22 -22 -22 -21 -21 -20 -20 -20 -20 -19 -18 -18 -18 -17 -13 -11 -11 -10 -10 -11 -13 -11
0 0 0 -0 -0 -1 -4 -8 -8 -6 -3 -1 -1 -1 -1 -2 -4 -14 -20 -20 -21 -21 -21 -21 -21 -21 -19 -19 -20 -19 -19 -18 -18 -18 -16 -12 -12 -12 -12 -11 -10 -11 -11 -11
-0 0 -0 -0 -5 -9 -9 -8 -7 -4 -2 -1 -1 -2 -3 -8 -20 -20 -20 -21 -21 -21 -21 -21 -19 -18 -18 -19 -19 -19 -19 -19 -18 -15 -13 -13 -13 -11 -11 -11 -11 -11 -11 -11
-1 -0 -1 -8 -9 -8 -8 -6 -4 -2 -2 -2 -2 -3 -9 -21 -21 -21 -20 -20 -21 -21 -20 -18 -17 -17 -18 -19 -19 -19 -20 -19 -17 -14 -13 -12 -11 -11 -11 -11 -11 -11 -12 -12
-4 -9 -9 -8 -8 -8 -6 -4 -3 -3 -2 -2 -3 -9 -21 -21 -21 -21 -20 -20 -20 -19 -16 -15 -16 -18 -19 -19 -20 -20 -19 -16 -13 -12 -12 -11 -11 -11 -11 -11 -12 -11 -12 -12
-8 -7 -6 -7 -8 -9 -7 -5 -3 -2 -2 -3 -9 -21 -21 -21 -20 -19 -18 -18 -18 -17 -15 -16 -18 -18 -19 -21 -20 -19 -16 -12 -12 -12 -11 -11 -11 -11 -11 -12 -11 -12 -12 -12
-7 -6 -6 -7 -8 -10 -8 -4 -3 -3 -4 -10 -20 -21 -21 -19 -18 -17 -17 -17 -17 -15 -16 -18 -18 -19 -21 -20 -19 -14 -11 -11 -11 -12 -12 -11 -12 -12 -12 -12 -12 -12 -13 -13
-8 -6 -5 -5 -6 -9 -10 -6 -5 -7 -13 -21 -21 -20 -19 -17 -16 -15 -16 -16 -15 -16 -17 -18 -20 -22 -21 -19 -12 -11 -11 -12 -13 -13 -14 -14 -14 -13 -13 -13 -13 -13 -13 -13
-9 -8 -5 -4 -5 -6 -8 -7 -7 -12 -20 -21 -19 -18 -16 -15 -14 -14 -15 -15 -16 -17 -18 -20 -21 -21 -19 -12 -11 -12 -13 -14 -15 -15 -14 -14 -13 -13 -13 -13 -13 -13 -13 -13
-7 -10 -7 -4 -4 -6 -7 -8 -8 -12 -18 -19 -18 -16 -14 -13 -13 -14 -14 -16 -17 -18 -20 -21 -21 -20 -18 -12 -14 -15 -15 -15 -15 -14 -14 -13 -13 -13 -13 -13 -13 -13 -13 -13
-6 -6 -7 -5 -4 -6 -8 -7 -8 -11 -15 -16 -15 -13 -13 -12 -13 -15 -16 -17 -19 -20 -21 -20 -20 -20 -14 -15 -16 -16 -16 -15 -14 -14 -13 -14 -13 -13 -14 -14 -14 -14 -13 -14
-5 -6 -5 -4 -6 -9 -7 -6 -8 -10 -11 -11 -12 -12 -12 -14 -16 -17 -18 -19 -21 -21 -20 -20 -20 -18 -17 -17 -16 -15 -15 -14 -14 -13 -13 -13 -13 -14 -14 -14 -14 -14 -14 -14
-6 -5 -5 -6 -8 -7 -6 -7 -8 -8 -9 -10 -11 -13 -15 -17 -17 -18 -20 -21 -21 -20 -20 -20 -19 -17 -16 -16 -15 -15 -14 -14 -13 -13 -14 -14 -14 -14 -14 -14 -14 -14 -14 -14
-6 -5 -6 -9 -9 -7 -7 -7 -8 -9 -11 -13 -15 -17 -17 -18 -19 -20 -20 -20 -20 -19 -20 -19 -17 -16 -16 -15 -15 -15 -14 -13 -13 -14 -14 -14 -14 -14 -14 -14 -14 -14 -14 -13

GFSNGP_850_dewp_012.txt.gz
Dewpoint
1 2 3 3 3 1 2 1 3 2 1 -1 -2 -1 -2 -2 -1 0 1 2 2 3 3 3 2 1 -2 -1 1 1 -1 -7 -13 -21 -28 -31 -31 -30 -29 -29 -28 -28 -27 -27
-1 -1 -1 1 3 2 1 1 0 1 1 -2 -2 -1 1 1 1 1 1 2 2 3 3 2 1 -1 -0 1 0 -1 -4 -9 -19 -26 -30 -30 -29 -29 -28 -27 -26 -26 -26 -26
1 -0 -1 -1 -1 3 2 1 2 3 0 -2 2 2 1 1 0 1 1 1 2 2 2 2 -1 -0 1 0 -1 -3 -4 -11 -24 -30 -29 -29 -28 -27 -26 -25 -25 -25 -26 -26
-0 0 -0 -3 -1 -3 -1 -1 -3 0 0 1 2 1 0 0 0 0 1 2 1 2 2 -0 -0 1 1 -2 -3 -6 -11 -16 -29 -29 -28 -27 -26 -25 -25 -24 -24 -25 -25 -25
2 1 -1 2 0 0 1 3 1 2 2 1 1 1 0 1 1 0 1 1 2 2 0 -1 0 -0 -1 -2 -9 -11 -17 -26 -29 -27 -26 -25 -25 -24 -24 -23 -24 -24 -24 -23
3 5 4 0 -0 -1 -0 5 1 2 2 2 1 2 1 0 1 1 1 1 2 0 -0 -0 0 0 -2 -5 -9 -19 -27 -28 -27 -25 -25 -24 -24 -23 -23 -22 -23 -24 -24 -22
4 4 3 -1 -1 -1 3 2 2 2 1 1 1 0 0 0 1 1 1 1 0 -0 -0 0 0 -1 -3 -13 -22 -24 -27 -26 -25 -24 -24 -23 -22 -22 -22 -22 -22 -23 -23 -23
3 4 4 -0 0 2 0 1 -0 -0 -0 -0 -0 -0 0 1 1 1 1 1 1 0 0 -0 -1 -4 -16 -21 -24 -26 -26 -25 -24 -23 -22 -21 -21 -21 -21 -22 -22 -23 -22 -19
2 2 0 0 0 0 0 -0 0 0 -0 -0 -0 0 0 -0 0 1 1 1 0 0 -0 -1 -6 -11 -22 -24 -26 -25 -25 -23 -22 -21 -21 -21 -21 -21 -21 -22 -21 -20 -13 -10
2 1 0 0 0 0 0 0 0 1 1 0 0 1 0 -1 0 1 1 1 -0 -1 -2 -6 -12 -21 -23 -25 -25 -24 -22 -21 -20 -20 -20 -20 -21 -21 -21 -20 -17 -12 -9 -9
2 1 1 0 0 1 1 1 1 1 1 1 1 1 1 -0 0 1 1 0 -0 -2 -5 -11 -20 -23 -24 -24 -23 -22 -21 -20 -19 -19 -20 -20 -20 -20 -19 -16 -11 -9 -10 -10
2 1 1 1 1 -0 0 0 1 0 -0 0 0 1 0 0 0 -0 -0 -2 -2 -5 -8 -21 -22 -23 -23 -22 -21 -20 -20 -18 -19 -19 -20 -20 -20 -20 -17 -14 -10 -10 -10 -10
1 1 0 0 0 -0 -1 -0 -1 -2 -4 -2 -1 0 -0 0 -0 -2 -2 -3 -3 -11 -21 -22 -22 -22 -21 -20 -20 -18 -18 -18 -19 -19 -20 -19 -19 -16 -13 -14 -14 -14 -11 -10
1 0 0 0 -0 -0 -1 -2 -6 -7 -7 -4 -1 0 -0 -1 -1 -2 -3 -4 -16 -21 -21 -21 -21 -21 -20 -18 -16 -17 -18 -19 -19 -20 -20 -19 -15 -12 -12 -12 -12 -12 -13 -11
0 -0 -0 -0 -1 -1 -5 -8 -9 -8 -8 -8 -5 -1 -1 -1 -2 -3 -5 -20 -21 -21 -21 -21 -21 -20 -17 -15 -16 -18 -19 -19 -20 -20 -18 -14 -13 -13 -12 -11 -11 -11 -11 -11
1 0 -0 -0 -5 -9 -9 -8 -7 -8 -8 -6 -5 -2 -2 -2 -3 -11 -21 -21 -21 -20 -20 -20 -20 -16 -15 -16 -18 -19 -20 -20 -21 -19 -15 -14 -13 -12 -11 -11 -11 -11 -11 -11
-0 0 -1 -9 -9 -8 -8 -8 -8 -7 -5 -4 -3 -2 -2 -4 -15 -21 -20 -20 -20 -20 -20 -19 -17 -15 -17 -18 -18 -20 -21 -21 -19 -16 -15 -14 -13 -11 -11 -11 -11 -11 -12 -12
-2 -9 -8 -8 -8 -8 -8 -8 -7 -6 -5 -3 -3 -2 -3 -11 -20 -20 -20 -20 -20 -19 -18 -17 -15 -16 -17 -18 -20 -22 -21 -19 -15 -14 -14 -13 -11 -11 -12 -12 -12 -12 -12 -13
-8 -8 -8 -8 -7 -7 -8 -10 -9 -6 -4 -3 -3 -3 -9 -19 -20 -20 -19 -19 -18 -17 -16 -15 -16 -17 -18 -20 -22 -21 -20 -16 -14 -14 -12 -12 -13 -12 -13 -13 -12 -13 -13 -13
-7 -7 -7 -6 -5 -6 -7 -8 -9 -7 -5 -3 -4 -7 -18 -20 -20 -19 -18 -17 -16 -15 -15 -15 -17 -18 -20 -22 -21 -18 -15 -13 -13 -13 -14 -12 -14 -14 -14 -13 -13 -13 -13 -13
-7 -7 -6 -6 -5 -5 -5 -6 -8 -8 -6 -6 -7 -14 -19 -19 -19 -17 -16 -15 -14 -14 -15 -16 -18 -20 -22 -21 -15 -12 -14 -14 -15 -15 -15 -15 -14 -14 -13 -13 -13 -14 -13 -13
-9 -9 -9 -8 -6 -5 -5 -5 -6 -8 -8 -9 -14 -19 -19 -18 -16 -15 -14 -13 -13 -15 -17 -17 -19 -21 -21 -13 -14 -16 -16 -16 -16 -15 -15 -14 -14 -13 -14 -14 -14 -14 -14 -14
-6 -6 -8 -9 -8 -6 -5 -5 -6 -7 -8 -11 -17 -18 -17 -15 -14 -14 -13 -13 -15 -17 -18 -20 -21 -21 -19 -14 -18 -17 -17 -16 -16 -15 -14 -14 -14 -14 -13 -14 -14 -14 -14 -14
-6 -6 -6 -6 -6 -6 -5 -6 -7 -7 -9 -12 -15 -15 -14 -13 -12 -12 -13 -16 -17 -18 -20 -21 -20 -20 -18 -19 -18 -17 -17 -16 -15 -15 -14 -14 -14 -13 -14 -14 -14 -14 -14 -14
-6 -5 -5 -6 -6 -5 -6 -7 -7 -6 -9 -11 -11 -11 -10 -10 -12 -15 -17 -17 -19 -20 -21 -20 -20 -20 -20 -19 -18 -17 -16 -15 -15 -14 -13 -13 -13 -14 -14 -14 -14 -14 -14 -14
-5 -5 -6 -5 -5 -6 -8 -7 -7 -8 -9 -9 -8 -8 -11 -15 -17 -17 -18 -20 -21 -20 -20 -20 -20 -20 -18 -17 -16 -16 -15 -15 -15 -14 -13 -13 -14 -14 -14 -14 -14 -14 -14 -13
-5 -6 -6 -5 -6 -8 -8 -7 -7 -7 -8 -10 -13 -16 -17 -17 -17 -19 -21 -21 -21 -21 -21 -20 -19 -17 -17 -16 -16 -15 -15 -14 -14 -13 -14 -14 -13 -13 -13 -14 -14 -14 -13 -13

GFSNGP_850_dewp_015.txt.gz
Dewpoint
0 2 2 3 3 1 1 1 2 1 1 -1 -1 -0 0 0 1 1 1 1 2 3 3 3 2 1 -1 -0 1 0 -1 -3 -5 -10 -20 -29 -30 -28 -27 -26 -24 -22 -22 -22
-0 1 2 3 3 1 0 1 1 0 1 -2 -2 -1 0 1 0 0 0 1 2 3 3 3 2 -0 -0 1 1 -1 -4 -7 -12 -12 -25 -29 -28 -27 -25 -23 -21 -20 -20 -22
3 -1 -1 2 1 3 1 1 0 2 0 -1 2 1 1 1 1 1 1 1 2 3 3 3 1 -1 1 1 -0 -3 -8 -14 -18 -20 -28 -28 -26 -25 -22 -20 -19 -20 -21 -22
1 -1 2 -0 -2 1 2 -1 -1 -1 -2 0 1 1 0 0 -0 0 1 1 2 2 3 1 -1 -0 0 0 -2 -6 -9 -16 -24 -27 -28 -26 -24 -21 -19 -19 -20 -21 -22 -23
3 1 -0 1 0 0 1 2 -2 2 2 1 1 0 1 1 1 0 0 1 2 2 2 -0 -1 0 0 -2 -3 -6 -15 -22 -27 -27 -25 -24 -21 -19 -19 -19 -20 -21 -22 -23
3 4 1 -1 -0 -2 -0 3 2 2 2 1 1 2 1 0 0 0 0 1 2 2 0 -1 -0 0 -2 -3 -6 -12 -21 -26 -26 -25 -23 -21 -19 -18 -19 -20 -20 -21 -22 -22
4 3 2 -1 -0 -2 3 1 2 2 2 1 1 -0 0 -1 -0 0 1 1 1 0 -1 -0 0 -2 -3 -5 -10 -20 -26 -26 -24 -23 -21 -19 -18 -18 -19 -20 -21 -22 -22 -21
3 4 3 -1 0 1 0 2 1 0 0 -0 -0 -0 -0 -0 0 1 1 1 0 -0 -0 -0 -1 -3 -6 -11 -18 -25 -25 -24 -22 -21 -19 -17 -18 -19 -20 -21 -21 -21 -21 -18
2 2 0 0 0 1 1 -0 -0 -0 -1 -1 -0 0 0 -0 -0 1 1 1 -0 -0 -0 -0 -3 -7 -11 -19 -24 -24 -23 -22 -21 -19 -17 -17 -18 -19 -20 -21 -20 -20 -16 -11
1 1 0 1 0 -0 -0 0 -0 -0 -0 0 -0 0 0 -0 -0 1 1 1 0 -1 -1 -3 -6 -11 -21 -23 -23 -22 -21 -21 -18 -15 -16 -18 -19 -20 -21 -20 -19 -14 -11 -10
2 1 0 0 0 0 0 0 0 0 0 0 0 1 1 0 -0 0 1 0 -0 -1 -3 -7 -14 -21 -22 -23 -22 -21 -21 -17 -15 -16 -18 -19 -20 -20 -20 -18 -13 -10 -10 -10
2 1 1 1 1 1 0 0 0 0 -0 -0 -0 -0 0 0 0 0 -0 -0 -2 -4 -6 -14 -21 -22 -22 -21 -21 -19 -15 -15 -17 -18 -19 -20 -21 -22 -19 -16 -12 -11 -10 -10
0 1 0 0 0 0 -0 -1 -1 -3 -5 -5 -4 -2 -1 -0 0 -0 -1 -2 -4 -4 -14 -21 -22 -21 -21 -21 -19 -15 -15 -17 -18 -19 -20 -22 -22 -18 -16 -15 -14 -13 -11 -10
1 0 1 0 0 -1 -2 -2 -4 -7 -7 -7 -5 -3 -1 -1 -2 -2 -3 -4 -5 -18 -21 -21 -21 -21 -21 -18 -15 -15 -17 -18 -19 -21 -23 -21 -17 -14 -14 -13 -12 -11 -12 -11
0 0 0 -0 -1 -1 -2 -6 -8 -8 -8 -7 -7 -4 -2 -2 -2 -3 -3 -6 -20 -20 -21 -21 -21 -21 -19 -16 -15 -17 -18 -19 -21 -22 -20 -16 -14 -15 -14 -12 -11 -11 -12 -12
0 0 -0 -1 -1 -3 -9 -8 -7 -7 -8 -7 -7 -5 -3 -2 -2 -3 -8 -20 -20 -21 -21 -21 -20 -19 -16 -15 -16 -17 -19 -21 -22 -20 -16 -15 -15 -14 -13 -11 -11 -12 -12 -12
0 0 -0 -2 -8 -9 -8 -8 -8 -8 -8 -7 -6 -4 -3 -2 -3 -9 -21 -21 -21 -20 -20 -19 -18 -16 -15 -16 -17 -18 -20 -22 -21 -16 -16 -15 -15 -13 -11 -11 -12 -12 -12 -13
-1 -2 -3 -9 -8 -9 -9 -9 -9 -8 -7 -5 -4 -3 -3 -3 -6 -18 -21 -21 -20 -19 -18 -17 -16 -14 -15 -17 -18 -20 -22 -21 -17 -16 -15 -15 -12 -12 -14 -13 -13 -13 -13 -14
-6 -8 -8 -9 -9 -8 -8 -8 -9 -8 -7 -5 -4 -3 -3 -4 -13 -20 -20 -20 -19 -18 -17 -16 -14 -15 -16 -18 -20 -22 -21 -18 -17 -16 -15 -14 -15 -15 -15 -14 -13 -13 -13 -13
-8 -8 -9 -8 -7 -6 -7 -7 -7 -7 -8 -7 -5 -4 -4 -9 -18 -20 -20 -19 -17 -16 -15 -14 -14 -16 -17 -19 -22 -21 -19 -16 -16 -16 -16 -15 -15 -15 -14 -14 -13 -13 -14 -13
-7 -8 -7 -6 -6 -5 -5 -5 -5 -6 -7 -8 -7 -6 -7 -15 -19 -19 -18 -17 -15 -14 -13 -14 -16 -18 -19 -21 -21 -19 -17 -17 -17 -17 -16 -16 -15 -15 -14 -13 -13 -14 -14 -14
-8 -8 -8 -8 -8 -7 -6 -5 -5 -5 -6 -8 -8 -9 -13 -18 -18 -17 -16 -14 -13 -12 -15 -17 -18 -19 -21 -21 -20 -19 -19 -18 -17 -16 -16 -15 -15 -14 -14 -13 -14 -14 -14 -14
-8 -7 -7 -8 -8 -7 -6 -5 -5 -6 -7 -8 -9 -13 -17 -17 -16 -14 -13 -12 -13 -16 -17 -18 -19 -22 -22 -20 -20 -20 -19 -18 -17 -16 -15 -15 -14 -14 -13 -14 -14 -14 -14 -14
-6 -6 -6 -6 -6 -6 -6 -5 -6 -7 -7 -9 -11 -14 -14 -13 -12 -11 -11 -15 -17 -17 -18 -21 -22 -22 -21 -21 -20 -19 -18 -17 -16 -15 -15 -15 -14 -13 -14 -14 -14 -14 -14 -14
-5 -6 -5 -5 -6 -6 -5 -6 -7 -7 -7 -9 -11 -11 -10 -9 -10 -14 -16 -17 -17 -20 -23 -23 -22 -21 -20 -19 -18 -17 -16 -16 -15 -15 -14 -14 -14 -14 -14 -14 -14 -14 -14 -14
-6 -5 -5 -6 -6 -5 -6 -7 -8 -8 -8 -9 -8 -8 -9 -14 -16 -17 -17 -20 -22 -22 -22 -21 -20 -19 -18 -17 -17 -16 -15 -15 -15 -14 -14 -13 -13 -13 -14 -14 -14 -14 -14 -14
-6 -5 -6 -6 -6 -6 -7 -8 -8 -7 -8 -8 -11 -15 -16 -16 -17 -19 -22 -22 -22 -21 -21 -20 -18 -18 -17 -16 -16 -15 -15 -14 -14 -13 -13 -13 -13 -13 -14 -14 -14 -14 -13 -13

GFSNGP_850_dewp_018.txt.gz
Dewpoint
2 2 2 3 4 3 4 4 4 3 2 -0 -2 0 1 1 1 1 2 3 3 4 3 2 2 1 -1 -1 0 -0 -2 -5 -7 -9 -11 -20 -28 -27 -25 -22 -19 -18 -18 -19
2 2 2 2 2 3 4 4 3 1 1 -2 -2 -1 -1 1 1 1 1 2 3 4 3 1 1 1 -1 -0 0 -1 -4 -6 -7 -11 -17 -27 -26 -25 -22 -19 -18 -17 -18 -19
5 0 2 4 3 2 1 0 0 2 1 -1 -0 -1 -0 1 1 1 1 2 3 3 2 2 2 0 -1 0 -0 -2 -4 -6 -11 -16 -26 -26 -25 -21 -18 -17 -17 -17 -17 -18
4 1 9 2 -1 -0 1 0 -1 -1 -1 -1 -1 1 1 1 1 1 1 1 2 3 3 3 1 -1 -0 -0 -1 -3 -5 -9 -15 -26 -26 -24 -22 -19 -17 -17 -17 -16 -16 -18
4 3 1 -1 -0 0 2 2 -0 0 -1 1 1 1 1 1 1 0 0 1 2 2 3 2 -0 -1 -0 -1 -3 -5 -6 -15 -25 -26 -24 -22 -19 -17 -16 -17 -17 -17 -16 -15
5 5 5 -1 -0 -2 -1 1 -1 -1 1 1 1 2 1 1 0 0 0 1 1 2 2 0 -1 -1 -0 -3 -6 -6 -13 -23 -26 -24 -22 -20 -18 -16 -17 -17 -17 -17 -16 -15
8 8 0 -1 -1 -1 2 2 1 1 1 1 1 1 1 0 -0 -0 0 1 2 2 0 -1 -1 -1 -2 -5 -6 -11 -20 -25 -24 -22 -21 -18 -16 -17 -17 -17 -17 -16 -15 -15
6 5 5 -0 -0 1 1 2 2 2 1 1 1 -0 -1 -1 -1 -0 0 1 1 -0 -1 -1 -1 -2 -4 -7 -11 -19 -24 -23 -22 -21 -17 -16 -17 -18 -18 -16 -16 -16 -15 -13
1 2 1 1 1 0 2 1 1 0 -0 -1 -1 -1 -1 -1 -1 -0 0 0 0 -0 -1 -1 -1 -5 -8 -10 -17 -24 -23 -22 -20 -16 -15 -17 -17 -18 -16 -16 -15 -14 -13 -12
1 1 1 1 1 1 1 -0 -0 -1 -1 -1 -1 -1 -1 -1 -1 -1 -0 0 0 -0 -0 -1 -4 -9 -10 -14 -23 -23 -22 -20 -15 -15 -17 -18 -18 -17 -17 -15 -14 -12 -11 -11
2 1 1 1 1 0 -0 -0 -1 -1 -1 -1 -1 -0 -0 -0 -1 -1 0 0 0 -1 -1 -4 -8 -10 -15 -23 -22 -21 -19 -15 -15 -16 -17 -17 -18 -17 -16 -15 -13 -10 -10 -10
2 0 1 0 1 0 0 0 -0 -1 -0 -1 -1 -1 -1 -0 -0 -0 0 0 -1 -1 -5 -6 -11 -19 -22 -22 -21 -19 -16 -15 -16 -17 -17 -19 -18 -16 -13 -11 -10 -10 -11 -10
0 1 1 1 1 0 -0 -0 -1 -1 -3 -5 -5 -4 -2 -1 -0 0 -0 -1 -2 -4 -5 -7 -21 -22 -21 -21 -19 -16 -15 -16 -17 -17 -17 -15 -14 -13 -12 -13 -12 -11 -11 -10
0 0 1 1 1 0 -0 -1 -2 -5 -7 -7 -7 -6 -4 -1 -1 -1 -1 -2 -3 -4 -12 -21 -21 -21 -21 -19 -17 -15 -15 -16 -18 -18 -17 -14 -13 -12 -12 -12 -12 -12 -12 -11
1 0 1 0 0 -0 -2 -3 -5 -8 -9 -9 -8 -7 -4 -3 -2 -2 -3 -3 -4 -17 -21 -21 -21 -21 -19 -17 -15 -15 -16 -17 -19 -20 -16 -14 -12 -12 -12 -12 -12 -12 -12 -12
0 0 0 0 -1 -2 -3 -6 -9 -8 -8 -8 -8 -8 -6 -4 -3 -3 -3 -4 -17 -20 -21 -20 -20 -19 -18 -15 -14 -15 -17 -18 -21 -21 -14 -12 -12 -12 -12 -12 -12 -12 -12 -12
0 -0 -0 -1 -2 -2 -8 -8 -8 -8 -8 -8 -7 -6 -5 -4 -3 -3 -4 -16 -20 -20 -20 -20 -19 -18 -16 -14 -15 -16 -18 -20 -21 -17 -12 -12 -12 -12 -12 -12 -12 -12 -13 -12
0 -0 -1 -3 -5 -8 -8 -8 -8 -8 -8 -7 -6 -6 -4 -3 -3 -4 -13 -20 -20 -20 -19 -18 -17 -16 -14 -14 -16 -18 -19 -20 -17 -12 -12 -12 -12 -12 -12 -12 -12 -12 -12 -12
-0 -2 -3 -9 -9 -9 -9 -9 -9 -9 -8 -7 -6 -5 -3 -3 -3 -7 -18 -19 -20 -19 -18 -16 -16 -14 -13 -16 -18 -19 -20 -17 -12 -12 -12 -12 -12 -12 -13 -13 -12 -12 -12 -12
-1 -7 -9 -9 -9 -8 -8 -8 -7 -7 -7 -7 -6 -4 -4 -4 -5 -12 -19 -19 -18 -17 -17 -15 -13 -13 -16 -17 -19 -20 -14 -12 -12 -13 -13 -13 -13 -13 -13 -13 -12 -13 -13 -13
-8 -9 -8 -7 -7 -6 -6 -6 -6 -6 -6 -7 -7 -6 -6 -6 -9 -17 -19 -18 -17 -16 -14 -12 -13 -16 -18 -19 -19 -12 -13 -13 -14 -14 -14 -14 -14 -13 -13 -13 -13 -14 -14 -14
-8 -7 -7 -6 -6 -6 -6 -6 -5 -5 -6 -7 -7 -8 -8 -9 -14 -18 -17 -16 -14 -13 -12 -14 -17 -18 -20 -22 -14 -16 -19 -20 -19 -17 -16 -15 -15 -14 -13 -13 -14 -14 -14 -14
-8 -8 -9 -8 -8 -8 -7 -6 -5 -5 -6 -7 -8 -9 -12 -15 -17 -16 -14 -12 -11 -13 -16 -17 -19 -22 -22 -21 -20 -21 -20 -19 -18 -17 -16 -16 -15 -14 -14 -14 -14 -14 -14 -14
-7 -7 -7 -7 -7 -6 -6 -5 -5 -6 -7 -8 -9 -11 -14 -14 -13 -11 -10 -12 -16 -17 -18 -22 -23 -22 -22 -21 -20 -19 -18 -17 -17 -16 -15 -15 -14 -14 -13 -13 -14 -14 -14 -14
-7 -6 -6 -6 -6 -6 -6 -5 -6 -7 -8 -9 -10 -11 -10 -9 -9 -12 -16 -17 -17 -21 -23 -23 -22 -22 -21 -20 -18 -18 -17 -17 -16 -15 -14 -14 -14 -14 -13 -13 -14 -14 -14 -14
-5 -5 -6 -6 -6 -6 -6 -6 -7 -8 -9 -9 -9 -8 -9 -12 -16 -16 -17 -20 -23 -23 -23 -23 -22 -20 -19 -18 -17 -17 -16 -15 -14 -14 -14 -13 -13 -13 -13 -14 -14 -14 -14 -14
-7 -6 -6 -6 -6 -6 -6 -7 -8 -8 -8 -8 -9 -13 -16 -16 -17 -20 -23 -23 -23 -23 -23 -22 -20 -19 -18 -17 -17 -16 -15 -14 -14 -13 -13 -13 -14 -14 -14 -14 -14 -14 -14 -13

GFSNGP_850_dewp_021.txt.gz
Dewpoint
1 2 4 5 6 6 7 6 5 3 2 -0 -1 -0 0 0 1 2 2 3 3 3 3 2 0 -2 -4 -3 -1 -0 -1 -2 -3 -5 -8 -14 -24 -27 -26 -22 -18 -16 -15 -14
3 2 2 2 2 4 4 4 3 2 2 -0 -2 -2 -0 0 1 1 2 3 3 3 3 2 -0 -2 -4 -3 -1 -1 -1 -2 -4 -8 -13 -23 -26 -26 -22 -19 -16 -15 -14 -14
5 2 3 5 2 2 2 2 2 4 2 0 -1 -1 -1 0 1 1 1 2 3 4 3 2 -1 -3 -4 -3 -1 -1 -2 -4 -7 -12 -20 -26 -26 -23 -19 -16 -15 -14 -14 -15
7 3 9 3 -1 0 1 1 1 2 0 -1 -1 -1 -0 0 1 1 2 2 3 3 3 1 -1 -3 -5 -1 -1 -2 -4 -7 -11 -16 -25 -25 -23 -19 -17 -15 -14 -15 -15 -15
6 5 3 1 -1 -0 2 2 -0 -0 -1 -1 1 1 1 1 1 1 2 3 3 3 1 -1 -2 -2 -1 -1 -2 -4 -6 -10 -15 -24 -25 -23 -20 -18 -15 -15 -15 -16 -16 -15
5 6 7 0 -1 -2 -1 3 -1 -1 -1 0 1 2 2 2 2 1 1 2 2 1 1 -1 -3 -2 -1 -1 -4 -6 -9 -11 -21 -25 -22 -21 -17 -15 -15 -16 -16 -16 -15 -16
9 8 6 -1 -1 -1 2 4 -1 -1 -1 1 1 2 2 1 1 0 -0 0 1 1 -1 -3 -2 -1 -1 -3 -6 -9 -9 -15 -24 -22 -21 -17 -15 -15 -16 -16 -15 -15 -16 -16
9 10 9 -1 -0 1 2 1 0 0 1 1 2 1 1 0 -1 -1 -1 0 1 -1 -2 -2 -1 -1 -3 -7 -9 -7 -12 -23 -22 -21 -16 -15 -15 -16 -16 -15 -16 -16 -16 -15
5 6 1 1 1 1 2 2 2 1 1 1 1 1 -0 -1 -1 -1 -0 -0 -1 -2 -2 -1 -1 -2 -7 -7 -6 -12 -23 -22 -21 -17 -15 -15 -16 -15 -15 -16 -16 -16 -14 -12
0 1 1 0 1 1 2 1 1 1 1 0 1 1 0 -1 -1 -1 -1 -1 -2 -3 -2 -1 -1 -3 -6 -6 -11 -23 -22 -21 -17 -15 -15 -15 -14 -15 -16 -16 -15 -13 -12 -10
1 1 1 1 1 1 1 1 0 0 0 0 -0 0 -1 -1 -1 -1 -1 -1 -1 -2 -2 -2 -1 -5 -5 -14 -22 -22 -21 -18 -15 -15 -15 -14 -15 -16 -15 -14 -12 -11 -10 -10
1 -0 0 0 1 1 1 0 -1 -1 -1 -1 -2 -3 -1 -1 -0 -1 -1 -1 -1 -1 -2 -2 -5 -7 -17 -22 -22 -21 -19 -15 -14 -15 -14 -15 -16 -15 -15 -13 -12 -12 -11 -10
0 0 1 1 1 1 1 1 -0 -1 -2 -3 -3 -3 -2 -2 -1 -1 -1 -0 -1 -1 -3 -5 -6 -19 -22 -22 -21 -19 -16 -14 -15 -15 -15 -15 -14 -14 -13 -14 -13 -12 -12 -11
1 1 1 1 1 1 0 -0 -1 -2 -4 -6 -7 -7 -6 -3 -2 -1 -1 -1 -1 -3 -4 -6 -19 -22 -22 -21 -20 -17 -14 -14 -15 -15 -16 -15 -14 -13 -13 -13 -13 -12 -12 -12
1 1 1 1 1 1 -0 -1 -3 -6 -7 -8 -8 -8 -6 -4 -2 -2 -3 -2 -3 -4 -7 -20 -21 -21 -21 -19 -17 -15 -14 -15 -15 -17 -17 -14 -13 -13 -13 -13 -12 -12 -12 -13
1 1 1 1 1 0 -1 -3 -6 -8 -8 -8 -9 -9 -9 -7 -5 -4 -3 -3 -4 -7 -20 -21 -21 -20 -19 -17 -15 -14 -14 -16 -16 -16 -16 -14 -13 -13 -13 -12 -12 -12 -12 -12
0 1 1 1 -0 -1 -3 -6 -8 -8 -9 -10 -9 -9 -8 -6 -4 -3 -4 -4 -5 -18 -21 -21 -20 -19 -17 -16 -14 -14 -16 -17 -17 -15 -13 -12 -12 -12 -12 -12 -12 -12 -13 -12
0 -0 0 0 -1 -3 -7 -8 -8 -10 -10 -9 -8 -8 -7 -5 -4 -4 -4 -4 -14 -20 -20 -19 -18 -17 -16 -14 -13 -16 -17 -18 -16 -13 -12 -12 -12 -12 -13 -13 -13 -13 -13 -13
0 0 -0 -1 -3 -8 -8 -9 -10 -9 -9 -9 -8 -6 -5 -4 -3 -4 -4 -8 -19 -19 -17 -18 -17 -16 -14 -13 -15 -17 -18 -17 -12 -12 -13 -13 -14 -14 -14 -14 -13 -13 -13 -13
-0 -1 -2 -6 -8 -10 -11 -10 -9 -8 -8 -7 -7 -6 -5 -4 -4 -4 -5 -13 -18 -17 -17 -16 -15 -13 -13 -16 -17 -19 -17 -12 -12 -13 -14 -14 -15 -14 -14 -13 -13 -13 -13 -13
-3 -7 -8 -10 -9 -9 -8 -8 -7 -7 -7 -7 -7 -7 -6 -6 -5 -6 -12 -17 -16 -17 -16 -14 -12 -13 -16 -17 -21 -22 -14 -13 -15 -15 -16 -15 -14 -14 -14 -13 -13 -13 -13 -13
-8 -9 -9 -8 -8 -7 -7 -6 -6 -6 -6 -6 -6 -7 -7 -7 -8 -12 -16 -17 -16 -15 -13 -11 -14 -17 -18 -23 -23 -19 -16 -18 -18 -16 -16 -15 -14 -14 -14 -13 -14 -14 -14 -14
-8 -8 -8 -7 -7 -7 -7 -7 -6 -6 -6 -6 -7 -8 -9 -10 -14 -16 -15 -15 -13 -10 -12 -16 -17 -21 -24 -23 -22 -20 -19 -18 -17 -16 -15 -15 -14 -13 -13 -14 -14 -14 -14 -14
-8 -9 -8 -8 -8 -8 -7 -7 -6 -6 -6 -7 -8 -9 -12 -14 -14 -13 -11 -10 -11 -16 -16 -20 -24 -23 -23 -22 -20 -19 -18 -17 -17 -16 -15 -14 -13 -13 -13 -13 -14 -14 -14 -14
-8 -7 -7 -7 -7 -7 -6 -6 -6 -6 -7 -8 -9 -11 -12 -11 -10 -9 -12 -16 -16 -20 -24 -24 -23 -23 -22 -20 -19 -18 -18 -17 -16 -14 -14 -14 -14 -13 -13 -13 -13 -13 -14 -13
-6 -6 -6 -6 -6 -6 -6 -6 -6 -7 -8 -9 -10 -9 -8 -9 -13 -16 -16 -19 -23 -23 -23 -23 -23 -22 -21 -19 -18 -17 -17 -15 -14 -14 -14 -13 -13 -14 -14 -14 -14 -14 -14 -14
-7 -7 -7 -6 -6 -6 -6 -7 -8 -8 -9 -9 -8 -9 -14 -16 -16 -18 -22 -23 -23 -23 -23 -23 -23 -23 -20 -18 -17 -16 -15 -14 -14 -13 -14 -14 -14 -14 -14 -14 -14 -14 -14 -14

GFSNGP_850_dewp_024.txt.gz
Dewpoint
7 7 7 7 7 7 8 6 6 4 1 1 1 1 1 0 2 3 3 3 3 4 3 2 1 -1 -2 -2 -2 -1 -1 -1 -2 -2 -4 -8 -15 -24 -26 -23 -21 -18 -16 -16
4 7 7 7 6 7 6 6 6 5 3 -1 -2 -0 0 1 1 2 3 3 3 4 3 2 0 -1 -3 -3 -2 -2 -1 -1 -2 -4 -7 -12 -22 -25 -23 -21 -18 -16 -16 -16
5 3 3 5 3 6 6 5 5 6 3 0 -0 0 0 0 1 2 3 3 3 4 3 2 0 -1 -3 -3 -2 -1 -1 -2 -4 -6 -10 -20 -25 -23 -21 -17 -16 -16 -17 -18
9 4 7 2 -1 0 2 2 2 2 1 0 -1 1 1 1 1 1 2 3 3 4 3 2 0 -2 -3 -3 -2 -2 -2 -4 -5 -8 -17 -24 -23 -21 -17 -15 -16 -17 -19 -19
7 5 4 2 -1 0 2 3 0 1 1 2 1 1 1 1 1 2 2 3 3 4 3 1 -0 -2 -3 -3 -2 -2 -4 -6 -9 -16 -24 -23 -21 -16 -15 -16 -18 -19 -19 -20
6 7 7 2 -1 -2 -1 4 -0 0 0 2 1 3 3 2 2 2 3 3 3 3 3 1 -1 -2 -2 -2 -2 -4 -6 -8 -13 -23 -23 -21 -16 -15 -16 -17 -18 -19 -19 -19
8 8 7 0 -2 -2 4 4 0 -0 1 2 3 2 2 2 2 2 2 3 2 1 0 -1 -2 -2 -2 -2 -4 -6 -7 -11 -22 -23 -21 -16 -15 -15 -16 -18 -18 -19 -19 -19
8 9 9 -1 -1 2 3 1 0 1 2 2 2 2 2 1 1 0 -0 0 0 -0 -1 -2 -3 -2 -2 -3 -6 -6 -9 -22 -23 -21 -17 -14 -15 -15 -18 -18 -18 -18 -17 -18
8 8 2 1 1 1 2 1 2 2 2 1 1 1 0 -0 -1 -1 -1 -1 -1 -1 -2 -2 -2 -2 -2 -5 -6 -8 -22 -23 -21 -17 -14 -14 -15 -17 -17 -17 -17 -17 -15 -13
2 1 1 1 0 1 2 2 1 1 1 1 0 -0 -1 -1 -1 -1 -1 -1 -2 -2 -2 -1 -1 -2 -5 -7 -8 -21 -23 -21 -18 -14 -14 -14 -16 -17 -17 -16 -15 -14 -12 -11
2 1 1 1 1 2 2 1 1 0 0 -1 -1 -1 -2 -2 -2 -2 -2 -2 -2 -2 -2 -1 -2 -3 -6 -8 -20 -23 -21 -19 -15 -13 -13 -15 -17 -18 -17 -16 -14 -12 -11 -11
3 0 0 1 1 1 1 0 0 -0 -0 -0 -3 -2 -2 -1 -1 -2 -2 -2 -2 -3 -3 -3 -3 -6 -7 -20 -23 -22 -20 -17 -14 -13 -14 -16 -17 -18 -18 -17 -15 -12 -11 -11
0 0 0 1 1 1 1 0 -0 -1 -2 -2 -1 -2 -2 -1 -1 -1 -2 -1 -2 -2 -2 -3 -5 -6 -21 -22 -22 -20 -19 -16 -13 -13 -15 -17 -17 -17 -18 -20 -15 -13 -12 -12
1 1 1 1 1 1 0 0 -1 -2 -2 -4 -5 -4 -5 -5 -3 -2 -2 -2 -1 -2 -3 -4 -6 -20 -22 -22 -20 -19 -18 -14 -13 -14 -16 -17 -17 -16 -14 -14 -14 -15 -14 -12
1 1 1 1 1 1 0 -0 -2 -4 -6 -7 -7 -8 -7 -6 -4 -3 -3 -2 -2 -3 -4 -6 -19 -22 -21 -20 -19 -19 -16 -13 -14 -16 -16 -16 -16 -16 -14 -14 -13 -13 -13 -13
1 1 1 1 1 0 -1 -2 -5 -6 -7 -8 -9 -9 -9 -8 -6 -5 -4 -3 -4 -4 -5 -17 -21 -21 -20 -19 -19 -17 -13 -14 -16 -16 -15 -17 -16 -15 -14 -13 -13 -13 -12 -13
1 1 1 1 1 -0 -2 -4 -7 -8 -8 -9 -10 -9 -8 -7 -6 -5 -4 -4 -4 -4 -14 -20 -20 -20 -19 -18 -17 -13 -13 -16 -17 -18 -17 -17 -15 -13 -13 -13 -13 -13 -13 -13
0 0 1 1 0 -2 -4 -6 -8 -9 -10 -9 -9 -8 -8 -7 -6 -5 -4 -4 -5 -12 -19 -20 -20 -19 -18 -17 -13 -13 -16 -17 -19 -18 -16 -15 -14 -13 -16 -15 -15 -14 -13 -13
1 0 1 0 -2 -4 -7 -8 -9 -10 -9 -9 -8 -8 -7 -6 -6 -5 -5 -5 -10 -17 -19 -19 -18 -18 -16 -13 -13 -16 -18 -22 -20 -16 -15 -17 -17 -16 -16 -15 -14 -13 -13 -13
0 0 -0 -2 -5 -8 -9 -10 -10 -10 -9 -9 -8 -7 -7 -6 -5 -4 -5 -7 -12 -16 -18 -18 -17 -15 -12 -13 -17 -19 -24 -21 -18 -18 -19 -18 -17 -16 -15 -15 -14 -13 -13 -13
-1 -2 -4 -8 -9 -10 -10 -9 -10 -9 -8 -8 -7 -7 -6 -6 -6 -6 -7 -11 -14 -17 -17 -16 -13 -11 -15 -17 -22 -24 -23 -22 -21 -20 -19 -17 -16 -16 -15 -15 -14 -14 -13 -14
-5 -8 -9 -10 -10 -9 -8 -8 -8 -8 -7 -7 -7 -7 -7 -7 -8 -8 -11 -15 -16 -16 -14 -11 -13 -16 -19 -24 -24 -24 -23 -21 -20 -18 -17 -16 -15 -15 -14 -14 -13 -13 -14 -14
-9 -10 -9 -9 -9 -8 -7 -7 -7 -7 -7 -7 -7 -7 -8 -9 -10 -13 -15 -14 -13 -11 -12 -16 -18 -23 -24 -25 -24 -23 -21 -20 -18 -17 -16 -15 -15 -14 -13 -13 -13 -14 -14 -14
-8 -8 -8 -8 -8 -9 -9 -7 -7 -6 -6 -7 -7 -8 -9 -11 -13 -14 -12 -10 -10 -16 -17 -22 -24 -25 -25 -24 -23 -22 -20 -18 -17 -16 -15 -14 -14 -13 -13 -14 -14 -14 -14 -14
-9 -9 -9 -9 -9 -8 -7 -6 -6 -6 -7 -7 -8 -10 -11 -11 -10 -9 -11 -16 -16 -20 -24 -24 -24 -25 -24 -24 -22 -20 -18 -17 -15 -14 -14 -14 -14 -14 -14 -14 -14 -14 -14 -14
-9 -9 -8 -7 -7 -7 -6 -6 -6 -7 -7 -8 -9 -10 -9 -8 -12 -16 -16 -19 -23 -24 -24 -24 -24 -24 -24 -23 -20 -17 -16 -15 -14 -14 -14 -14 -14 -14 -13 -14 -14 -14 -14 -14
-7 -7 -7 -7 -7 -6 -6 -6 -7 -7 -8 -8 -8 -8 -11 -15 -16 -18 -22 -24 -24 -23 -23 -23 -24 -24 -22 -19 -17 -16 -14 -14 -14 -14 -14 -13 -14 -14 -14 -14 -14 -14 -14 -14

GFSNGP_850_dewp_027.txt.gz
Dewpoint
8 6 7 8 8 8 9 8 8 4 4 2 1 1 1 2 3 3 3 4 4 4 4 3 2 1 -0 -1 -2 -3 -2 -2 -1 -1 -3 -5 -9 -19 -24 -23 -19 -16 -17 -18
9 7 7 7 7 7 7 7 6 6 5 -1 0 0 0 2 3 3 3 4 4 4 4 3 2 0 -1 -2 -3 -3 -2 -1 -1 -3 -4 -7 -17 -24 -23 -19 -16 -16 -18 -21
8 7 7 8 7 7 7 5 5 7 4 -0 1 1 0 2 3 3 3 3 3 4 3 3 1 0 -1 -2 -3 -3 -2 -1 -3 -4 -7 -16 -24 -23 -18 -15 -16 -18 -20 -20
8 4 7 3 -0 4 7 5 4 4 2 -0 1 2 1 1 2 3 3 3 3 3 3 2 1 -0 -2 -3 -3 -2 -2 -3 -5 -6 -12 -23 -23 -18 -15 -15 -17 -19 -20 -20
6 6 4 2 -1 1 3 3 2 4 2 1 1 1 2 1 2 2 3 3 3 3 3 2 1 -1 -2 -3 -3 -2 -3 -5 -6 -10 -22 -23 -17 -15 -15 -16 -19 -19 -20 -21
4 6 7 2 -1 -2 -1 4 1 -0 2 2 1 3 2 3 2 2 3 3 3 3 2 1 -1 -1 -2 -3 -2 -3 -5 -6 -9 -22 -23 -17 -14 -14 -15 -17 -19 -19 -20 -20
7 8 6 1 -1 -1 3 2 1 1 1 1 1 1 3 3 3 3 3 3 3 3 2 1 -1 -2 -3 -2 -3 -5 -6 -9 -21 -23 -18 -14 -14 -14 -16 -18 -19 -19 -20 -20
7 9 7 -1 -1 0 0 1 2 2 2 2 2 2 3 3 3 3 3 3 3 2 1 -1 -2 -2 -2 -2 -5 -6 -8 -20 -23 -18 -14 -13 -13 -15 -18 -18 -19 -20 -20 -17
7 6 2 1 1 1 2 2 2 2 2 1 2 2 2 2 2 1 1 1 0 -0 -1 -3 -3 -3 -2 -4 -6 -7 -18 -23 -19 -15 -13 -13 -14 -16 -18 -18 -19 -20 -15 -12
5 3 1 1 1 2 1 1 2 1 1 1 1 1 0 -1 -1 -1 -1 -1 -2 -2 -2 -3 -3 -2 -4 -6 -7 -17 -23 -20 -17 -14 -13 -13 -15 -17 -18 -19 -21 -14 -12 -11
2 1 1 1 0 2 2 1 1 1 1 0 -0 -1 -2 -2 -2 -2 -2 -2 -2 -2 -2 -2 -2 -3 -5 -7 -17 -23 -21 -19 -16 -14 -12 -13 -16 -18 -19 -21 -17 -12 -12 -11
4 0 -0 0 1 2 1 1 1 0 -0 -1 -3 -3 -3 -2 -2 -3 -3 -3 -3 -3 -2 -2 -3 -5 -7 -17 -22 -21 -20 -18 -16 -13 -12 -15 -17 -19 -23 -22 -19 -15 -12 -11
0 0 0 0 1 1 1 0 -0 -1 -2 -2 -2 -4 -4 -3 -2 -2 -2 -2 -3 -3 -3 -3 -5 -7 -18 -22 -22 -20 -19 -18 -15 -12 -14 -17 -18 -21 -20 -20 -18 -19 -15 -12
0 0 1 1 1 1 0 0 -1 -1 -2 -3 -3 -3 -4 -3 -2 -2 -2 -2 -2 -3 -4 -5 -6 -13 -21 -22 -21 -20 -19 -16 -12 -13 -16 -17 -20 -19 -18 -17 -18 -19 -18 -15
1 0 1 1 1 1 0 -1 -1 -1 -2 -2 -4 -5 -6 -5 -3 -3 -3 -2 -3 -3 -4 -6 -11 -21 -21 -21 -20 -19 -17 -13 -12 -16 -17 -20 -19 -18 -18 -16 -16 -17 -18 -17
1 1 1 1 1 0 -0 -1 -3 -4 -5 -6 -7 -7 -6 -6 -5 -4 -4 -3 -3 -4 -5 -11 -20 -21 -20 -20 -19 -17 -14 -12 -15 -17 -22 -21 -19 -19 -17 -15 -17 -17 -16 -15
1 1 1 1 1 0 -1 -4 -6 -7 -8 -10 -10 -9 -8 -8 -6 -5 -5 -5 -5 -6 -11 -19 -20 -20 -20 -18 -17 -14 -11 -15 -18 -24 -22 -19 -18 -18 -17 -17 -17 -16 -16 -14
0 1 1 1 0 -1 -4 -6 -7 -8 -10 -10 -10 -9 -8 -7 -7 -5 -5 -5 -6 -8 -16 -19 -19 -19 -18 -17 -14 -11 -15 -18 -25 -23 -20 -19 -19 -18 -18 -17 -16 -15 -15 -15
0 1 1 1 -1 -3 -6 -7 -8 -10 -10 -9 -9 -8 -7 -6 -6 -5 -5 -5 -7 -13 -17 -18 -17 -17 -17 -12 -12 -16 -20 -25 -24 -22 -21 -20 -19 -18 -17 -16 -15 -15 -14 -14
1 1 1 -1 -3 -6 -8 -9 -10 -10 -9 -9 -8 -7 -6 -6 -5 -5 -6 -7 -11 -14 -16 -17 -17 -15 -11 -13 -17 -23 -25 -24 -23 -22 -20 -19 -18 -17 -17 -16 -15 -14 -14 -14
0 0 -2 -4 -7 -8 -10 -10 -10 -10 -7 -7 -7 -7 -7 -6 -6 -6 -7 -9 -13 -15 -15 -16 -13 -10 -16 -18 -25 -25 -25 -24 -22 -20 -19 -18 -17 -17 -15 -14 -14 -14 -14 -13
-1 -3 -6 -7 -9 -9 -8 -8 -9 -9 -8 -8 -7 -7 -7 -7 -8 -8 -11 -14 -15 -15 -13 -10 -13 -17 -22 -25 -25 -25 -24 -22 -21 -19 -18 -17 -16 -15 -14 -14 -14 -14 -14 -14
-5 -7 -9 -9 -9 -8 -7 -7 -7 -8 -8 -8 -7 -8 -8 -9 -11 -13 -14 -13 -12 -10 -12 -16 -20 -24 -25 -25 -25 -24 -23 -21 -19 -18 -17 -15 -14 -14 -14 -14 -14 -14 -14 -14
-8 -9 -8 -8 -9 -8 -8 -7 -7 -7 -7 -7 -8 -9 -10 -11 -12 -13 -11 -9 -12 -16 -18 -24 -25 -25 -25 -25 -25 -24 -21 -19 -17 -16 -15 -14 -14 -14 -14 -14 -14 -14 -14 -14
-8 -8 -8 -9 -9 -9 -8 -7 -7 -7 -7 -8 -9 -10 -11 -11 -9 -9 -13 -15 -17 -21 -24 -24 -24 -24 -25 -25 -24 -20 -18 -17 -15 -14 -14 -14 -14 -14 -14 -14 -14 -14 -14 -14
-9 -9 -8 -8 -9 -8 -7 -7 -7 -7 -8 -9 -9 -10 -8 -9 -13 -15 -16 -19 -23 -24 -24 -24 -24 -25 -25 -23 -20 -18 -17 -15 -14 -14 -14 -14 -14 -15 -15 -15 -14 -14 -14 -14
-9 -8 -8 -8 -7 -7 -7 -7 -7 -8 -9 -9 -8 -8 -12 -15 -15 -17 -21 -24 -24 -24 -24 -24 -25 -25 -23 -20 -18 -17 -15 -14 -14 -14 -14 -15 -15 -16 -16 -15 -14 -13 -13 -14

GFSNGP_850_dewp_030.txt.gz
Dewpoint
5 5 6 6 7 7 6 4 5 3 6 5 1 1 2 3 3 4 4 5 5 5 4 3 2 2 0 -1 -3 -3 -3 -3 -2 -1 -2 -4 -8 -17 -23 -23 -17 -16 -17 -19
7 8 7 8 7 7 7 6 5 7 6 0 0 1 2 3 3 4 4 4 4 4 4 3 3 2 -0 -1 -3 -3 -3 -2 -2 -2 -4 -7 -15 -22 -23 -17 -15 -17 -19 -20
10 7 8 9 7 9 7 8 9 9 4 1 1 1 2 3 3 3 4 4 4 4 4 3 3 2 -0 -1 -3 -3 -3 -2 -2 -4 -6 -12 -21 -23 -16 -15 -16 -18 -20 -20
9 5 7 3 -0 5 6 5 4 4 1 1 1 1 1 2 3 3 3 4 4 4 4 3 2 1 -0 -2 -3 -3 -3 -2 -4 -6 -9 -20 -22 -16 -14 -15 -17 -19 -20 -20
8 7 4 1 -0 3 6 6 4 4 2 2 2 2 2 2 3 3 3 3 3 4 4 3 2 0 -1 -3 -4 -3 -3 -4 -5 -7 -18 -23 -16 -14 -14 -16 -18 -19 -20 -21
5 6 7 2 -1 -2 -1 4 1 1 2 2 1 3 2 2 2 3 3 3 3 3 3 3 1 -1 -2 -3 -4 -3 -3 -5 -7 -16 -23 -16 -13 -13 -14 -17 -18 -19 -21 -23
7 7 5 2 -1 -1 3 1 1 1 1 1 1 1 2 2 3 3 3 3 3 3 3 1 -1 -2 -3 -4 -3 -3 -5 -6 -14 -23 -17 -13 -13 -13 -15 -18 -19 -20 -23 -24
8 7 6 -0 -2 -1 -1 2 2 2 2 2 2 3 2 2 3 3 3 3 3 3 1 -1 -2 -3 -3 -3 -3 -5 -6 -13 -23 -18 -14 -13 -13 -13 -16 -18 -20 -23 -24 -24
6 5 2 1 1 2 1 2 2 2 2 2 3 2 2 2 2 3 3 2 1 1 -1 -3 -3 -3 -2 -2 -5 -6 -10 -22 -19 -16 -14 -13 -13 -14 -17 -19 -23 -24 -21 -18
5 3 2 1 1 2 1 1 1 2 2 2 2 2 2 2 2 2 2 2 1 0 -1 -3 -4 -3 -3 -4 -6 -9 -22 -21 -18 -16 -14 -12 -13 -16 -18 -22 -24 -21 -18 -15
4 1 1 0 0 2 1 2 1 2 1 2 2 2 1 1 0 -0 -1 -1 -2 -2 -2 -3 -3 -3 -5 -6 -9 -22 -22 -19 -17 -15 -13 -12 -14 -17 -20 -23 -22 -16 -15 -12
5 1 0 0 0 2 1 1 1 1 1 1 -0 -1 -2 -2 -2 -2 -3 -3 -3 -3 -2 -2 -2 -4 -6 -10 -21 -22 -20 -19 -17 -14 -12 -13 -16 -18 -23 -23 -23 -22 -21 -15
1 0 0 0 2 1 1 1 1 0 -1 -1 -2 -3 -4 -4 -3 -3 -3 -3 -3 -2 -2 -2 -4 -6 -9 -21 -22 -20 -19 -18 -16 -13 -12 -15 -18 -22 -22 -25 -24 -23 -21 -19
0 0 1 1 1 1 1 0 -1 -2 -2 -4 -4 -4 -5 -5 -3 -3 -3 -3 -3 -3 -3 -4 -6 -8 -20 -22 -21 -19 -19 -17 -13 -12 -15 -18 -22 -21 -21 -21 -21 -21 -19 -18
1 0 1 1 1 1 0 -1 -2 -2 -3 -3 -3 -5 -5 -4 -3 -3 -3 -3 -3 -4 -4 -6 -7 -17 -21 -21 -20 -19 -18 -14 -12 -14 -18 -22 -21 -22 -22 -21 -20 -19 -19 -18
1 1 1 1 1 0 -0 -1 -2 -1 -2 -3 -4 -4 -4 -4 -4 -3 -3 -3 -3 -4 -5 -7 -16 -20 -20 -20 -19 -18 -15 -12 -14 -18 -24 -23 -22 -22 -22 -20 -19 -18 -18 -17
1 1 1 1 0 0 -1 -2 -4 -4 -6 -7 -7 -6 -6 -5 -4 -4 -4 -4 -5 -5 -7 -16 -20 -20 -20 -18 -18 -16 -11 -15 -19 -24 -24 -23 -22 -22 -20 -18 -18 -17 -17 -16
0 0 0 0 0 -0 -2 -4 -6 -7 -8 -9 -9 -8 -8 -7 -7 -5 -5 -6 -6 -8 -15 -19 -19 -19 -18 -18 -15 -11 -15 -20 -25 -25 -24 -24 -22 -20 -19 -18 -17 -16 -15 -15
1 1 1 0 -0 -1 -4 -6 -8 -9 -11 -10 -9 -8 -7 -7 -6 -6 -6 -6 -7 -11 -16 -18 -17 -17 -17 -13 -12 -16 -22 -25 -25 -25 -24 -22 -21 -19 -18 -17 -16 -15 -14 -14
1 1 1 0 -1 -4 -6 -8 -10 -10 -9 -9 -8 -7 -7 -6 -6 -6 -6 -7 -12 -15 -16 -17 -17 -15 -11 -14 -18 -24 -25 -25 -25 -24 -23 -21 -19 -18 -16 -15 -14 -14 -14 -14
1 1 -0 -2 -4 -6 -8 -10 -10 -9 -8 -8 -8 -7 -7 -6 -6 -6 -8 -9 -12 -15 -16 -15 -12 -11 -16 -19 -25 -25 -25 -25 -25 -23 -21 -19 -17 -16 -15 -14 -14 -14 -14 -14
0 -0 -2 -5 -7 -8 -9 -9 -9 -9 -7 -7 -7 -7 -7 -7 -7 -9 -11 -13 -14 -15 -12 -10 -14 -18 -23 -25 -25 -25 -25 -25 -24 -21 -19 -17 -16 -15 -14 -14 -14 -14 -14 -14
-1 -3 -5 -7 -9 -8 -7 -8 -8 -9 -8 -8 -8 -8 -8 -8 -10 -11 -13 -14 -12 -10 -13 -17 -21 -24 -25 -25 -25 -25 -25 -24 -21 -19 -17 -15 -15 -14 -14 -14 -15 -15 -15 -15
-4 -7 -8 -8 -8 -8 -8 -7 -8 -8 -8 -8 -8 -9 -9 -10 -12 -13 -11 -9 -12 -16 -19 -23 -25 -25 -25 -25 -25 -25 -23 -20 -18 -16 -15 -15 -14 -14 -15 -16 -16 -15 -14 -14
-6 -8 -9 -9 -8 -9 -8 -8 -8 -8 -8 -9 -10 -11 -11 -11 -9 -9 -12 -15 -17 -21 -24 -24 -24 -24 -24 -25 -25 -23 -20 -18 -16 -15 -15 -14 -15 -15 -16 -16 -16 -15 -13 -13
-8 -8 -8 -9 -9 -9 -8 -8 -8 -8 -9 -9 -10 -10 -9 -9 -11 -15 -16 -19 -23 -24 -24 -24 -24 -24 -25 -25 -23 -20 -18 -16 -15 -15 -14 -14 -15 -16 -16 -16 -16 -13 -13 -13
-8 -8 -8 -8 -8 -7 -7 -8 -8 -9 -9 -9 -8 -8 -10 -14 -16 -18 -21 -23 -24 -24 -23 -24 -24 -25 -25 -23 -20 -18 -16 -15 -14 -14 -14 -14 -15 -14 -14 -15 -14 -13 -13 -13

GFSNGP_850_dewp_033.txt.gz
Dewpoint
5 5 6 6 5 4 4 2 3 2 3 1 -1 2 3 4 5 5 5 5 4 4 3 1 0 -1 -2 -3 -4 -4 -3 -3 -2 -2 -2 -3 -5 -10 -18 -22 -19 -16 -17 -18
6 5 6 7 6 4 4 1 3 5 4 1 1 2 3 4 4 5 5 5 4 4 3 2 1 -0 -2 -3 -3 -4 -3 -3 -2 -2 -3 -4 -9 -14 -22 -18 -15 -16 -17 -20
8 7 7 8 7 4 5 3 2 6 4 1 2 2 3 3 4 4 5 5 4 4 3 2 1 1 -1 -2 -3 -4 -4 -3 -2 -3 -4 -7 -13 -21 -18 -14 -14 -16 -18 -20
8 7 9 6 6 5 5 5 5 5 5 4 3 1 2 3 3 4 4 4 4 4 4 3 2 1 -0 -2 -3 -4 -4 -3 -3 -4 -6 -10 -20 -18 -14 -13 -14 -16 -18 -19
9 7 5 2 6 6 6 6 5 5 5 2 2 2 2 2 3 3 3 4 4 4 4 3 3 1 -0 -2 -3 -4 -4 -3 -4 -5 -8 -19 -19 -14 -13 -13 -14 -16 -18 -20
7 7 7 2 -1 -1 1 7 4 4 3 2 1 4 3 2 3 3 3 3 3 4 4 3 2 1 -1 -2 -4 -5 -4 -3 -5 -7 -17 -20 -14 -13 -13 -13 -15 -18 -19 -24
6 7 5 2 1 -1 3 1 1 1 2 2 2 3 2 2 3 3 3 3 3 4 4 3 2 -0 -2 -3 -4 -4 -4 -5 -7 -14 -21 -15 -13 -13 -12 -14 -16 -18 -23 -25
7 8 5 0 -2 -0 -1 2 2 2 1 2 2 2 2 3 3 3 3 3 3 3 3 2 0 -1 -3 -4 -4 -4 -5 -6 -13 -21 -17 -14 -13 -12 -13 -15 -18 -23 -25 -26
6 5 2 1 1 2 2 2 2 2 2 1 2 1 2 2 2 3 3 3 3 3 2 -1 -2 -3 -3 -4 -3 -5 -6 -12 -21 -18 -15 -14 -13 -12 -13 -17 -22 -24 -24 -24
5 3 2 1 1 2 1 1 2 2 2 1 1 1 1 1 2 2 2 2 2 1 -1 -3 -4 -4 -3 -3 -5 -7 -10 -21 -19 -17 -16 -14 -12 -13 -16 -20 -23 -24 -23 -20
4 2 1 1 0 1 1 1 2 2 2 2 2 1 1 1 1 1 1 1 0 0 -1 -2 -4 -4 -4 -5 -6 -9 -22 -20 -18 -18 -16 -13 -12 -15 -18 -22 -23 -21 -20 -18
5 2 1 0 1 1 1 1 1 2 2 2 2 2 2 1 1 1 1 0 -1 -2 -2 -3 -4 -4 -5 -7 -11 -22 -21 -19 -19 -17 -14 -12 -14 -16 -21 -23 -24 -24 -23 -20
2 1 0 1 1 1 1 1 1 1 2 2 1 1 -0 -1 -1 -2 -2 -2 -3 -3 -3 -3 -4 -5 -7 -11 -21 -22 -20 -19 -18 -15 -12 -14 -17 -22 -24 -26 -26 -25 -22 -20
1 1 1 1 2 1 1 1 1 1 0 -1 -2 -3 -4 -4 -3 -3 -4 -3 -3 -3 -3 -3 -4 -7 -11 -21 -21 -20 -19 -18 -16 -12 -13 -17 -22 -23 -23 -23 -22 -23 -21 -19
1 0 0 1 1 1 1 0 -1 -2 -2 -3 -4 -5 -5 -4 -4 -4 -4 -3 -3 -3 -3 -5 -7 -10 -20 -21 -20 -19 -18 -17 -13 -13 -17 -23 -24 -24 -24 -23 -22 -21 -20 -19
1 1 1 1 1 1 -0 -1 -3 -3 -4 -4 -4 -4 -4 -4 -4 -4 -4 -3 -4 -4 -5 -7 -9 -18 -20 -20 -19 -18 -17 -12 -13 -17 -23 -25 -25 -24 -23 -22 -20 -19 -18 -17
1 1 1 1 1 0 -1 -3 -5 -5 -5 -5 -4 -4 -4 -4 -3 -3 -4 -5 -5 -5 -7 -9 -17 -20 -20 -19 -18 -17 -12 -13 -18 -24 -25 -25 -24 -23 -21 -20 -19 -18 -16 -15
0 0 1 1 0 -0 -1 -3 -4 -4 -5 -6 -6 -5 -5 -5 -5 -4 -4 -5 -6 -7 -11 -18 -19 -19 -18 -18 -16 -12 -13 -19 -25 -26 -25 -24 -23 -22 -21 -19 -18 -16 -15 -15
1 0 0 0 0 -1 -2 -3 -5 -6 -7 -7 -7 -7 -7 -7 -6 -6 -6 -6 -7 -9 -15 -18 -18 -17 -17 -14 -11 -14 -20 -25 -25 -25 -25 -24 -22 -21 -19 -17 -16 -15 -15 -15
1 1 0 0 -0 -2 -3 -5 -7 -8 -8 -9 -9 -8 -7 -7 -6 -6 -7 -7 -10 -14 -16 -16 -17 -16 -12 -11 -17 -23 -25 -25 -25 -25 -24 -22 -20 -18 -16 -15 -15 -15 -15 -15
1 1 0 -0 -1 -3 -6 -8 -10 -10 -9 -9 -9 -8 -7 -7 -6 -7 -7 -9 -12 -14 -15 -16 -14 -10 -14 -19 -24 -25 -25 -25 -25 -24 -22 -19 -17 -16 -15 -15 -15 -15 -16 -16
0 0 -0 -1 -4 -6 -8 -9 -10 -10 -9 -8 -8 -7 -7 -7 -7 -8 -10 -11 -13 -14 -14 -10 -12 -16 -21 -25 -25 -25 -25 -25 -24 -21 -19 -17 -16 -15 -15 -15 -16 -16 -16 -16
-0 -1 -2 -4 -6 -8 -8 -8 -9 -9 -8 -8 -7 -7 -7 -8 -8 -9 -11 -13 -14 -11 -11 -15 -18 -23 -25 -25 -24 -25 -25 -24 -21 -19 -17 -16 -15 -15 -15 -16 -17 -17 -17 -14
-2 -3 -5 -7 -8 -9 -8 -7 -8 -7 -7 -7 -8 -8 -8 -9 -11 -13 -12 -11 -10 -14 -17 -21 -24 -24 -24 -24 -25 -25 -24 -21 -19 -17 -16 -15 -15 -15 -16 -16 -16 -16 -15 -14
-4 -5 -5 -8 -9 -9 -9 -8 -8 -8 -8 -8 -9 -10 -11 -12 -11 -10 -9 -13 -16 -19 -23 -24 -24 -24 -24 -25 -25 -24 -22 -19 -17 -16 -15 -15 -15 -15 -15 -14 -14 -15 -13 -13
-4 -5 -8 -9 -10 -10 -9 -8 -9 -9 -9 -9 -10 -11 -10 -9 -9 -12 -15 -17 -20 -23 -24 -24 -23 -24 -25 -26 -25 -22 -19 -17 -16 -15 -15 -15 -14 -14 -14 -14 -15 -14 -13 -13
-6 -8 -8 -8 -9 -9 -9 -9 -9 -9 -9 -10 -9 -9 -9 -12 -14 -16 -18 -21 -23 -23 -23 -23 -24 -25 -26 -26 -23 -19 -17 -16 -15 -15 -15 -14 -14 -14 -14 -14 -15 -13 -13 -12

GFSNGP_850_dewp_039.txt.gz
Dewpoint
3 3 4 5 5 5 5 4 5 1 2 -0 -2 0 -1 -0 4 5 4 3 3 3 5 7 8 7 6 5 2 -1 -3 -4 -3 -3 -2 -2 -2 -3 -5 -8 -13 -16 -15 -14
6 4 5 6 6 6 6 4 5 3 3 -0 -3 1 1 2 4 5 4 3 2 3 5 6 7 5 3 1 -1 -3 -3 -3 -3 -2 -2 -3 -3 -5 -9 -13 -16 -14 -13 -13
6 5 6 8 7 6 6 4 4 5 2 -0 -0 -0 1 3 4 5 4 2 2 3 4 5 5 4 2 -0 -2 -4 -4 -3 -3 -3 -3 -3 -5 -8 -12 -15 -14 -13 -13 -13
7 7 8 5 5 6 6 5 4 2 1 0 1 2 3 3 3 6 4 3 2 3 3 3 2 1 -0 -2 -4 -4 -4 -4 -3 -3 -4 -5 -8 -11 -15 -15 -13 -12 -12 -13
8 8 6 3 2 6 6 6 4 3 1 0 2 3 2 3 4 5 5 4 3 3 2 2 0 -1 -2 -4 -5 -5 -4 -4 -4 -4 -5 -7 -11 -14 -15 -14 -13 -12 -13 -14
7 8 8 4 2 3 4 8 4 2 3 3 4 5 3 3 4 5 5 4 3 3 2 1 -1 -3 -4 -5 -5 -5 -5 -5 -5 -6 -7 -10 -13 -16 -14 -13 -13 -13 -14 -18
7 8 5 3 1 3 5 6 1 3 4 4 5 3 3 4 4 4 4 4 3 2 1 -0 -2 -4 -5 -5 -5 -6 -5 -5 -5 -7 -9 -10 -16 -15 -14 -13 -13 -13 -15 -22
6 7 6 1 -0 2 -0 1 2 2 4 5 4 3 3 3 4 4 4 4 3 3 1 -1 -2 -3 -4 -5 -6 -6 -6 -6 -6 -7 -11 -17 -16 -15 -14 -13 -13 -15 -21 -26
4 4 1 2 2 1 2 2 2 2 1 2 3 3 3 3 4 4 4 4 3 2 0 -2 -3 -3 -3 -5 -6 -6 -6 -6 -7 -11 -17 -17 -16 -15 -14 -13 -15 -22 -25 -27
5 3 3 2 1 1 1 2 2 2 2 1 1 2 3 2 3 3 3 2 2 2 0 -2 -3 -4 -3 -5 -6 -6 -6 -7 -11 -18 -18 -17 -16 -14 -13 -15 -21 -25 -26 -25
4 3 2 2 2 1 2 2 1 1 1 1 1 1 2 2 2 1 2 2 2 1 -0 -2 -5 -5 -5 -6 -6 -6 -7 -12 -19 -19 -18 -17 -15 -13 -14 -21 -24 -25 -24 -24
5 2 2 1 1 1 1 1 1 1 0 0 1 2 2 1 1 1 1 1 1 -1 -2 -5 -6 -6 -6 -6 -7 -7 -13 -20 -19 -18 -18 -15 -13 -14 -21 -25 -25 -25 -25 -23
3 1 1 1 1 1 1 1 1 0 -0 0 0 1 1 0 1 1 0 -1 -2 -3 -4 -6 -5 -4 -6 -7 -10 -16 -21 -20 -19 -18 -15 -12 -13 -21 -26 -25 -26 -26 -24 -22
2 1 1 2 1 1 1 2 1 1 0 1 0 0 0 0 -1 -1 -3 -3 -4 -4 -4 -4 -4 -5 -8 -11 -18 -21 -20 -19 -18 -16 -12 -15 -23 -26 -25 -25 -25 -26 -24 -21
1 1 1 1 2 1 1 1 1 2 -0 -0 -1 -1 -1 -2 -3 -4 -4 -4 -4 -4 -4 -5 -5 -8 -14 -19 -20 -20 -19 -18 -15 -12 -16 -24 -25 -25 -25 -25 -24 -22 -21 -20
1 1 1 2 2 2 2 1 1 0 -0 -1 -1 -2 -2 -3 -3 -4 -4 -4 -4 -4 -5 -6 -9 -14 -19 -20 -20 -19 -18 -14 -11 -17 -25 -25 -25 -25 -25 -23 -22 -20 -18 -17
1 1 2 1 1 1 1 1 1 -0 -2 -2 -3 -4 -4 -4 -4 -4 -4 -4 -4 -6 -8 -9 -12 -18 -20 -19 -19 -17 -12 -12 -20 -25 -25 -25 -25 -24 -23 -21 -19 -18 -17 -17
1 1 1 1 1 0 0 -0 -2 -3 -4 -5 -5 -5 -5 -5 -4 -4 -5 -5 -6 -7 -10 -13 -17 -19 -19 -18 -16 -11 -14 -22 -25 -25 -25 -25 -24 -23 -21 -19 -17 -16 -16 -17
1 0 1 1 1 0 -1 -3 -4 -5 -5 -5 -5 -5 -5 -5 -5 -5 -6 -6 -6 -8 -11 -16 -18 -17 -16 -14 -11 -17 -23 -25 -25 -25 -25 -25 -24 -21 -19 -17 -16 -16 -17 -17
1 1 1 1 0 -1 -3 -4 -5 -5 -5 -5 -5 -5 -5 -5 -6 -6 -6 -7 -10 -11 -14 -16 -16 -15 -11 -12 -19 -24 -25 -24 -25 -25 -25 -24 -21 -19 -17 -16 -16 -16 -16 -16
1 1 1 0 -1 -2 -4 -5 -5 -5 -5 -6 -7 -6 -6 -6 -6 -7 -7 -9 -11 -14 -14 -15 -14 -10 -15 -21 -24 -25 -24 -25 -25 -26 -24 -20 -19 -17 -16 -15 -15 -16 -15 -16
1 1 0 -0 -2 -3 -4 -4 -6 -7 -7 -7 -7 -8 -7 -7 -8 -8 -9 -10 -12 -13 -14 -12 -11 -17 -22 -24 -24 -24 -25 -26 -26 -23 -20 -18 -17 -16 -15 -15 -15 -15 -15 -16
0 0 -0 -1 -2 -3 -4 -5 -8 -10 -10 -9 -9 -8 -8 -8 -8 -9 -10 -12 -13 -13 -10 -13 -18 -23 -24 -24 -24 -25 -27 -27 -23 -20 -18 -17 -16 -15 -15 -15 -15 -15 -15 -16
-0 -0 -1 -2 -3 -5 -6 -7 -9 -9 -10 -9 -8 -8 -9 -9 -9 -11 -12 -13 -11 -11 -15 -19 -23 -24 -24 -24 -25 -27 -27 -24 -20 -18 -17 -16 -15 -15 -15 -15 -15 -15 -16 -15
-1 -1 -2 -3 -5 -7 -9 -9 -9 -8 -8 -8 -8 -8 -9 -10 -11 -12 -12 -10 -13 -17 -20 -23 -23 -23 -24 -25 -27 -27 -25 -21 -19 -18 -16 -16 -16 -15 -15 -14 -14 -14 -16 -15
-2 -3 -4 -6 -8 -9 -10 -9 -9 -8 -9 -9 -9 -9 -11 -11 -11 -9 -12 -15 -18 -20 -23 -23 -23 -23 -24 -26 -27 -26 -23 -19 -18 -16 -16 -16 -15 -15 -15 -15 -15 -15 -15 -14
-3 -5 -7 -8 -8 -8 -9 -9 -10 -9 -9 -10 -11 -11 -10 -9 -10 -14 -16 -18 -20 -22 -23 -23 -23 -24 -26 -27 -27 -24 -20 -17 -16 -16 -16 -15 -15 -15 -15 -15 -15 -15 -16 -15

GFSNGP_850_dewp_042.txt.gz
Dewpoint
3 2 2 4 5 5 6 5 6 2 1 -1 -2 -2 -3 -3 -1 3 4 3 3 3 3 1 2 6 8 8 6 6 3 -2 -4 -4 -3 -2 -2 -3 -4 -6 -9 -12 -14 -14
5 2 3 6 5 7 7 7 6 5 4 -0 -1 -2 -2 -0 1 4 5 3 2 1 -1 -2 3 7 6 6 3 0 -3 -4 -4 -3 -3 -3 -3 -4 -6 -9 -12 -14 -14 -13
6 3 4 8 7 7 7 5 5 6 3 0 0 1 -0 1 2 3 4 2 1 -1 -3 1 4 6 5 3 -1 -4 -4 -4 -3 -3 -3 -4 -5 -7 -9 -11 -13 -14 -13 -12
7 5 7 4 4 5 7 6 4 3 2 1 0 -0 2 4 4 5 4 1 -0 -2 -1 2 4 4 3 -1 -4 -4 -4 -4 -3 -3 -4 -5 -7 -9 -11 -13 -14 -13 -13 -13
7 7 3 4 3 4 7 6 4 4 3 2 1 2 5 5 5 4 3 1 0 2 3 2 3 1 -2 -4 -5 -5 -4 -4 -4 -4 -5 -6 -9 -11 -13 -14 -13 -13 -13 -13
6 7 6 4 2 3 4 9 2 4 3 3 3 5 4 5 5 3 1 0 1 1 -0 0 -2 -2 -3 -5 -5 -5 -4 -4 -5 -5 -6 -9 -11 -11 -15 -14 -13 -13 -13 -15
5 7 5 2 1 4 7 8 2 3 4 4 4 3 3 4 4 3 2 2 2 1 1 0 -1 -3 -4 -5 -5 -5 -5 -5 -5 -7 -8 -8 -14 -15 -15 -14 -14 -13 -14 -20
6 8 7 1 2 4 1 2 2 3 3 4 3 2 3 3 4 2 2 2 2 1 -1 -2 -2 -4 -5 -5 -5 -5 -5 -5 -6 -8 -11 -14 -16 -16 -15 -14 -13 -14 -19 -25
4 4 1 2 2 2 2 2 2 2 3 4 4 2 3 3 3 2 2 2 3 1 -0 -5 -6 -6 -5 -5 -6 -6 -6 -6 -8 -10 -13 -17 -16 -16 -15 -13 -14 -20 -25 -25
5 3 3 2 2 1 1 2 2 2 2 3 3 2 3 3 3 2 1 0 -0 -1 -4 -6 -6 -5 -4 -6 -6 -6 -7 -8 -9 -13 -17 -17 -17 -16 -13 -14 -21 -24 -19 -17
4 3 2 2 2 2 1 2 1 1 1 1 1 2 2 2 2 2 1 -0 -1 -2 -3 -4 -6 -6 -6 -6 -7 -7 -7 -9 -14 -18 -18 -18 -16 -13 -14 -21 -25 -25 -24 -24
4 2 2 1 1 1 1 1 -0 -0 -0 -0 1 1 1 1 1 1 1 1 -1 -2 -3 -5 -6 -6 -7 -7 -7 -6 -8 -16 -19 -19 -18 -17 -13 -14 -22 -25 -25 -25 -26 -25
3 2 1 1 2 1 1 0 -0 -0 -1 -0 -1 0 1 1 1 1 1 -0 -2 -3 -5 -6 -6 -6 -7 -8 -9 -12 -18 -20 -19 -19 -17 -12 -15 -23 -25 -24 -25 -27 -26 -24
2 2 2 1 2 1 1 1 1 0 -0 -0 -0 -0 0 1 0 0 -1 -2 -4 -5 -6 -6 -5 -5 -7 -9 -15 -19 -20 -20 -19 -15 -12 -17 -24 -25 -25 -25 -27 -28 -26 -21
2 1 1 1 1 2 2 -1 -0 0 0 0 -0 0 0 -0 -1 -2 -4 -5 -5 -5 -5 -5 -5 -7 -11 -16 -20 -20 -20 -18 -13 -12 -19 -24 -25 -25 -25 -26 -26 -23 -21 -19
1 1 1 1 2 2 2 -0 0 1 0 -0 -1 -1 -1 -2 -3 -5 -5 -5 -4 -4 -5 -6 -8 -11 -17 -20 -20 -19 -17 -12 -13 -20 -25 -25 -25 -26 -26 -26 -23 -20 -17 -16
1 1 2 2 3 3 3 2 -0 0 -0 -1 -2 -3 -3 -3 -4 -4 -5 -5 -5 -5 -7 -9 -11 -17 -20 -19 -18 -16 -11 -14 -22 -25 -24 -24 -26 -26 -25 -21 -19 -18 -17 -17
2 4 3 2 3 3 3 2 -0 -1 -1 -2 -3 -3 -4 -4 -5 -5 -5 -5 -6 -8 -10 -13 -17 -19 -18 -17 -14 -11 -17 -23 -25 -24 -24 -26 -26 -24 -21 -19 -18 -17 -17 -17
1 1 1 1 2 1 2 1 -1 -2 -3 -4 -4 -5 -5 -5 -5 -5 -5 -6 -7 -9 -13 -17 -18 -17 -16 -12 -12 -19 -24 -24 -24 -24 -26 -27 -24 -20 -19 -18 -17 -16 -16 -16
1 1 1 1 1 1 1 -0 -3 -4 -5 -5 -5 -5 -5 -5 -5 -5 -6 -8 -9 -12 -15 -16 -16 -15 -11 -14 -20 -23 -24 -24 -25 -26 -27 -24 -21 -19 -18 -17 -16 -16 -16 -16
1 1 1 1 0 0 -1 -3 -5 -5 -6 -6 -6 -6 -5 -6 -6 -7 -8 -9 -12 -15 -15 -15 -14 -10 -16 -21 -23 -24 -24 -25 -27 -27 -24 -21 -19 -18 -17 -16 -16 -15 -15 -15
1 1 1 1 -0 -2 -3 -4 -5 -6 -6 -6 -6 -6 -6 -7 -7 -8 -9 -11 -13 -14 -14 -12 -11 -17 -21 -23 -24 -23 -25 -27 -27 -24 -21 -19 -18 -17 -16 -16 -15 -15 -15 -15
0 0 0 -1 -2 -3 -4 -5 -5 -6 -6 -6 -7 -7 -7 -8 -8 -9 -11 -12 -13 -13 -11 -13 -18 -21 -23 -23 -23 -25 -27 -27 -24 -21 -19 -18 -16 -16 -16 -16 -15 -15 -15 -15
0 -0 -1 -2 -3 -4 -4 -5 -5 -6 -7 -7 -8 -8 -9 -9 -9 -10 -12 -12 -13 -10 -14 -18 -21 -23 -23 -23 -24 -26 -27 -26 -22 -20 -18 -17 -16 -16 -16 -15 -15 -15 -15 -15
-0 -0 -1 -3 -4 -4 -5 -6 -7 -7 -8 -8 -8 -9 -9 -10 -11 -12 -12 -11 -11 -15 -18 -21 -23 -23 -23 -24 -26 -27 -27 -24 -20 -18 -17 -16 -16 -16 -15 -15 -15 -15 -15 -15
-1 -1 -2 -3 -4 -5 -6 -7 -8 -9 -9 -9 -9 -9 -10 -11 -12 -11 -10 -13 -16 -18 -21 -22 -23 -23 -23 -25 -27 -27 -26 -22 -19 -17 -16 -16 -16 -15 -15 -15 -15 -15 -15 -16
-2 -2 -3 -4 -5 -7 -9 -9 -9 -9 -9 -9 -9 -10 -11 -11 -10 -11 -14 -17 -19 -21 -22 -22 -22 -23 -24 -26 -27 -26 -22 -19 -17 -16 -16 -16 -15 -15 -15 -15 -15 -15 -15 -16